GEFSSGP_prec_meanprecacc_006.txt.gz
Total_Precipitation_Accumulation
0.00 0.00 0.00 0.00 0.00 0.00 0.01 0.01 0.00 0.00 0.00 0.00 0.00 0.00 0.00 0.00 0.00 0.00 0.00 0.00 0.00 0.00 0.00 0.00 0.00 0.01 0.02 0.05 0.05 0.06 0.05 0.01 0.00 0.01 0.03 0.05 0.02 0.00 0.00 0.00 0.00 0.00 0.00 0.00 0.01 0.01 0.01 0.00 0.00
0.00 0.00 0.00 0.00 0.00 0.00 0.01 0.00 0.00 0.01 0.00 0.00 0.00 0.00 0.00 0.00 0.00 0.00 0.00 0.00 0.00 0.00 0.00 0.00 0.00 0.01 0.01 0.02 0.03 0.06 0.06 0.03 0.02 0.03 0.05 0.06 0.04 0.01 0.00 0.00 0.00 0.00 0.00 0.00 0.00 0.01 0.00 0.00 0.00
0.00 0.00 0.00 0.00 0.00 0.00 0.01 0.00 0.00 0.00 0.00 0.00 0.00 0.00 0.00 0.00 0.00 0.00 0.00 0.00 0.00 0.00 0.00 0.01 0.01 0.01 0.01 0.01 0.02 0.05 0.08 0.06 0.03 0.05 0.06 0.05 0.04 0.03 0.02 0.01 0.02 0.02 0.00 0.00 0.00 0.01 0.01 0.00 0.00
0.00 0.00 0.00 0.00 0.00 0.00 0.00 0.00 0.00 0.00 0.00 0.00 0.00 0.00 0.00 0.00 0.00 0.00 0.00 0.00 0.00 0.00 0.00 0.00 0.02 0.02 0.02 0.02 0.01 0.03 0.07 0.06 0.04 0.06 0.07 0.05 0.07 0.09 0.06 0.02 0.04 0.04 0.02 0.01 0.01 0.00 0.00 0.00 0.01
0.00 0.00 0.00 0.00 0.00 0.00 0.00 0.00 0.00 0.00 0.00 0.00 0.00 0.00 0.00 0.00 0.00 0.00 0.00 0.00 0.00 0.00 0.00 0.00 0.02 0.02 0.01 0.01 0.03 0.03 0.04 0.04 0.03 0.04 0.03 0.03 0.06 0.12 0.09 0.07 0.04 0.04 0.03 0.01 0.00 0.00 0.00 0.00 0.01
0.00 0.00 0.00 0.00 0.00 0.00 0.00 0.00 0.00 0.01 0.00 0.00 0.00 0.00 0.00 0.00 0.00 0.00 0.00 0.00 0.00 0.00 0.00 0.00 0.01 0.01 0.00 0.00 0.02 0.03 0.03 0.02 0.01 0.01 0.00 0.01 0.02 0.03 0.05 0.06 0.05 0.03 0.01 0.00 0.00 0.00 0.00 0.01 0.01
0.00 0.00 0.00 0.00 0.00 0.00 0.00 0.00 0.00 0.00 0.00 0.00 0.00 0.00 0.00 0.00 0.00 0.00 0.00 0.00 0.00 0.00 0.00 0.00 0.00 0.01 0.00 0.00 0.01 0.02 0.02 0.02 0.01 0.00 0.00 0.01 0.01 0.02 0.04 0.04 0.03 0.03 0.02 0.01 0.00 0.01 0.01 0.01 0.01
0.00 0.00 0.00 0.00 0.00 0.00 0.00 0.00 0.00 0.00 0.00 0.00 0.00 0.00 0.00 0.00 0.00 0.00 0.00 0.00 0.00 0.00 0.00 0.00 0.00 0.01 0.01 0.01 0.01 0.02 0.02 0.01 0.01 0.00 0.00 0.00 0.00 0.01 0.03 0.02 0.02 0.05 0.04 0.01 0.00 0.01 0.01 0.02 0.01
0.00 0.00 0.00 0.00 0.00 0.00 0.00 0.00 0.00 0.00 0.00 0.00 0.00 0.00 0.00 0.00 0.00 0.00 0.00 0.00 0.00 0.00 0.00 0.00 0.00 0.01 0.01 0.01 0.00 0.01 0.01 0.01 0.01 0.02 0.02 0.02 0.01 0.03 0.05 0.03 0.03 0.02 0.01 0.00 0.00 0.01 0.02 0.02 0.01
0.00 0.00 0.00 0.00 0.00 0.00 0.00 0.00 0.00 0.00 0.00 0.00 0.00 0.00 0.00 0.00 0.00 0.00 0.00 0.00 0.00 0.00 0.00 0.00 0.00 0.00 0.00 0.00 0.00 0.00 0.00 0.00 0.00 0.01 0.04 0.05 0.06 0.04 0.03 0.04 0.03 0.01 0.00 0.00 0.01 0.03 0.02 0.02 0.02
0.00 0.00 0.00 0.00 0.00 0.00 0.00 0.00 0.00 0.00 0.00 0.00 0.00 0.00 0.00 0.00 0.00 0.00 0.00 0.00 0.00 0.00 0.00 0.00 0.00 0.00 0.00 0.00 0.00 0.00 0.00 0.00 0.00 0.00 0.00 0.01 0.01 0.01 0.00 0.02 0.06 0.05 0.03 0.08 0.12 0.13 0.14 0.09 0.08
0.00 0.00 0.00 0.00 0.00 0.00 0.00 0.00 0.00 0.01 0.01 0.01 0.00 0.00 0.00 0.00 0.00 0.00 0.00 0.00 0.00 0.00 0.00 0.00 0.00 0.00 0.00 0.00 0.00 0.00 0.00 0.00 0.00 0.00 0.00 0.00 0.00 0.00 0.02 0.07 0.12 0.12 0.11 0.16 0.10 0.11 0.10 0.04 0.01
0.00 0.00 0.00 0.00 0.00 0.00 0.00 0.00 0.01 0.01 0.01 0.01 0.01 0.00 0.00 0.00 0.00 0.00 0.00 0.00 0.00 0.00 0.00 0.00 0.00 0.00 0.00 0.00 0.00 0.00 0.00 0.00 0.00 0.00 0.00 0.00 0.01 0.04 0.07 0.07 0.09 0.04 0.08 0.10 0.06 0.03 0.04 0.06 0.03
0.00 0.00 0.00 0.00 0.00 0.00 0.00 0.00 0.00 0.02 0.01 0.00 0.00 0.00 0.00 0.00 0.00 0.00 0.00 0.00 0.00 0.00 0.00 0.00 0.00 0.00 0.00 0.00 0.00 0.00 0.00 0.00 0.00 0.00 0.00 0.00 0.02 0.06 0.12 0.11 0.08 0.06 0.07 0.12 0.13 0.10 0.20 0.14 0.07
0.00 0.00 0.00 0.00 0.00 0.00 0.00 0.00 0.01 0.03 0.01 0.00 0.00 0.00 0.00 0.00 0.00 0.00 0.00 0.00 0.00 0.00 0.00 0.01 0.01 0.00 0.00 0.00 0.00 0.00 0.01 0.00 0.00 0.00 0.00 0.00 0.01 0.06 0.11 0.15 0.11 0.12 0.10 0.14 0.16 0.19 0.23 0.09 0.07
0.00 0.00 0.00 0.00 0.00 0.00 0.00 0.00 0.00 0.00 0.01 0.01 0.02 0.01 0.00 0.00 0.00 0.00 0.00 0.00 0.00 0.00 0.00 0.02 0.05 0.01 0.00 0.00 0.00 0.02 0.02 0.00 0.00 0.00 0.00 0.02 0.03 0.06 0.11 0.12 0.08 0.11 0.18 0.20 0.19 0.21 0.18 0.12 0.07
0.00 0.00 0.00 0.00 0.00 0.00 0.00 0.00 0.00 0.00 0.01 0.01 0.01 0.01 0.00 0.00 0.00 0.00 0.00 0.00 0.00 0.00 0.00 0.01 0.02 0.00 0.01 0.02 0.02 0.06 0.08 0.04 0.02 0.02 0.02 0.02 0.02 0.03 0.08 0.08 0.11 0.13 0.16 0.19 0.13 0.17 0.11 0.13 0.11
0.00 0.00 0.00 0.00 0.00 0.00 0.00 0.00 0.00 0.00 0.01 0.03 0.06 0.03 0.00 0.00 0.00 0.00 0.00 0.00 0.00 0.01 0.04 0.05 0.05 0.02 0.01 0.01 0.03 0.07 0.09 0.06 0.04 0.04 0.04 0.04 0.03 0.04 0.11 0.14 0.17 0.14 0.18 0.19 0.17 0.20 0.19 0.20 0.17
0.00 0.00 0.00 0.00 0.00 0.00 0.00 0.00 0.00 0.00 0.00 0.00 0.01 0.02 0.00 0.00 0.00 0.00 0.00 0.00 0.01 0.06 0.10 0.11 0.08 0.04 0.01 0.01 0.02 0.03 0.03 0.02 0.01 0.01 0.01 0.02 0.03 0.05 0.13 0.14 0.18 0.14 0.12 0.18 0.18 0.22 0.19 0.21 0.20
0.00 0.00 0.00 0.00 0.00 0.00 0.00 0.00 0.00 0.00 0.00 0.00 0.00 0.00 0.00 0.00 0.00 0.01 0.01 0.03 0.06 0.09 0.07 0.06 0.05 0.04 0.03 0.04 0.03 0.03 0.01 0.01 0.00 0.00 0.00 0.00 0.01 0.04 0.09 0.15 0.16 0.16 0.22 0.28 0.30 0.33 0.25 0.17 0.16
0.00 0.00 0.00 0.00 0.00 0.00 0.00 0.00 0.00 0.00 0.00 0.00 0.00 0.00 0.00 0.00 0.01 0.01 0.02 0.04 0.05 0.05 0.04 0.02 0.02 0.02 0.02 0.01 0.01 0.01 0.00 0.00 0.00 0.00 0.00 0.01 0.02 0.05 0.12 0.18 0.24 0.35 0.38 0.36 0.38 0.36 0.35 0.28 0.26
0.00 0.00 0.00 0.00 0.00 0.00 0.00 0.00 0.00 0.00 0.00 0.00 0.00 0.00 0.01 0.02 0.02 0.02 0.02 0.02 0.03 0.02 0.01 0.01 0.00 0.00 0.00 0.00 0.00 0.01 0.01 0.01 0.00 0.01 0.02 0.03 0.06 0.11 0.15 0.20 0.27 0.32 0.34 0.36 0.30 0.34 0.42 0.39 0.31
0.00 0.00 0.00 0.00 0.00 0.00 0.00 0.00 0.00 0.00 0.00 0.00 0.01 0.01 0.01 0.02 0.01 0.01 0.01 0.01 0.01 0.01 0.00 0.00 0.00 0.00 0.00 0.00 0.00 0.01 0.01 0.01 0.01 0.02 0.06 0.09 0.12 0.18 0.23 0.24 0.25 0.24 0.24 0.31 0.33 0.36 0.35 0.35 0.33
0.00 0.00 0.00 0.00 0.00 0.00 0.00 0.00 0.00 0.00 0.00 0.03 0.10 0.11 0.06 0.02 0.02 0.01 0.01 0.01 0.00 0.00 0.00 0.00 0.00 0.00 0.00 0.00 0.01 0.01 0.01 0.01 0.01 0.03 0.07 0.08 0.12 0.18 0.24 0.28 0.30 0.28 0.28 0.31 0.29 0.28 0.25 0.27 0.29
0.00 0.01 0.05 0.03 0.00 0.00 0.00 0.00 0.00 0.00 0.00 0.02 0.09 0.18 0.13 0.03 0.01 0.01 0.01 0.01 0.01 0.01 0.01 0.01 0.01 0.01 0.01 0.01 0.03 0.03 0.02 0.02 0.05 0.08 0.10 0.11 0.12 0.13 0.16 0.21 0.28 0.29 0.30 0.26 0.22 0.25 0.26 0.28 0.28
0.00 0.03 0.15 0.13 0.03 0.01 0.01 0.01 0.02 0.02 0.02 0.03 0.04 0.06 0.05 0.02 0.01 0.01 0.01 0.01 0.01 0.01 0.01 0.01 0.02 0.04 0.04 0.03 0.03 0.02 0.01 0.02 0.04 0.05 0.08 0.10 0.10 0.11 0.13 0.19 0.27 0.30 0.30 0.29 0.27 0.24 0.24 0.26 0.28
0.03 0.07 0.09 0.19 0.12 0.09 0.02 0.01 0.05 0.07 0.11 0.08 0.05 0.04 0.02 0.01 0.01 0.01 0.01 0.01 0.01 0.01 0.01 0.03 0.04 0.03 0.03 0.01 0.01 0.00 0.00 0.01 0.02 0.05 0.09 0.12 0.14 0.12 0.13 0.17 0.22 0.31 0.39 0.41 0.36 0.29 0.26 0.27 0.28
0.02 0.03 0.04 0.13 0.13 0.12 0.03 0.02 0.08 0.22 0.27 0.22 0.17 0.08 0.02 0.01 0.01 0.02 0.02 0.02 0.01 0.01 0.01 0.02 0.03 0.01 0.00 0.00 0.00 0.00 0.00 0.01 0.03 0.04 0.05 0.07 0.09 0.11 0.15 0.19 0.23 0.25 0.28 0.29 0.27 0.29 0.29 0.25 0.22
0.05 0.07 0.09 0.12 0.08 0.09 0.08 0.09 0.14 0.23 0.31 0.32 0.26 0.12 0.03 0.02 0.02 0.02 0.01 0.02 0.03 0.02 0.02 0.03 0.03 0.02 0.01 0.01 0.00 0.00 0.00 0.00 0.01 0.01 0.04 0.07 0.07 0.08 0.11 0.14 0.12 0.10 0.08 0.07 0.07 0.10 0.11 0.09 0.06
0.03 0.07 0.14 0.22 0.17 0.15 0.15 0.10 0.06 0.06 0.09 0.10 0.08 0.03 0.01 0.01 0.01 0.01 0.01 0.01 0.01 0.02 0.02 0.02 0.01 0.01 0.00 0.01 0.01 0.00 0.00 0.00 0.00 0.00 0.00 0.01 0.02 0.04 0.06 0.06 0.04 0.02 0.01 0.01 0.01 0.01 0.01 0.01 0.00

GEFSSGP_prec_meanprecacc_012.txt.gz
Total_Precipitation_Accumulation
0.00 0.00 0.00 0.00 0.01 0.03 0.13 0.21 0.06 0.01 0.00 0.00 0.00 0.00 0.00 0.00 0.01 0.00 0.00 0.00 0.00 0.00 0.00 0.00 0.00 0.01 0.02 0.05 0.05 0.06 0.05 0.01 0.01 0.01 0.03 0.06 0.03 0.01 0.00 0.00 0.00 0.00 0.00 0.00 0.01 0.01 0.01 0.00 0.00
0.00 0.00 0.00 0.00 0.00 0.01 0.14 0.24 0.07 0.03 0.01 0.00 0.00 0.00 0.00 0.00 0.00 0.00 0.00 0.00 0.00 0.00 0.00 0.00 0.00 0.01 0.01 0.03 0.05 0.07 0.06 0.03 0.02 0.04 0.06 0.07 0.04 0.01 0.00 0.00 0.00 0.00 0.00 0.00 0.00 0.01 0.00 0.00 0.00
0.00 0.00 0.00 0.00 0.00 0.01 0.07 0.13 0.02 0.01 0.00 0.00 0.00 0.00 0.00 0.00 0.00 0.00 0.00 0.00 0.00 0.00 0.00 0.01 0.01 0.01 0.01 0.02 0.03 0.07 0.09 0.06 0.05 0.08 0.09 0.07 0.05 0.03 0.02 0.01 0.02 0.02 0.00 0.00 0.00 0.01 0.01 0.00 0.00
0.00 0.00 0.00 0.00 0.00 0.02 0.03 0.03 0.02 0.02 0.00 0.00 0.00 0.00 0.00 0.00 0.00 0.00 0.00 0.00 0.00 0.00 0.00 0.00 0.02 0.02 0.02 0.02 0.02 0.04 0.09 0.08 0.06 0.08 0.11 0.09 0.10 0.11 0.06 0.02 0.04 0.04 0.02 0.01 0.01 0.00 0.00 0.00 0.01
0.00 0.00 0.00 0.00 0.00 0.02 0.03 0.02 0.01 0.01 0.00 0.00 0.00 0.00 0.00 0.00 0.00 0.00 0.00 0.00 0.00 0.00 0.00 0.00 0.02 0.02 0.01 0.01 0.03 0.03 0.04 0.06 0.04 0.05 0.05 0.04 0.07 0.14 0.10 0.07 0.05 0.04 0.03 0.01 0.00 0.00 0.00 0.00 0.01
0.00 0.00 0.00 0.00 0.00 0.01 0.02 0.02 0.02 0.02 0.00 0.00 0.00 0.00 0.00 0.00 0.00 0.00 0.00 0.00 0.00 0.00 0.00 0.00 0.01 0.01 0.00 0.00 0.02 0.03 0.03 0.02 0.01 0.01 0.00 0.01 0.02 0.03 0.05 0.06 0.05 0.03 0.01 0.00 0.00 0.00 0.00 0.01 0.01
0.00 0.00 0.00 0.00 0.00 0.00 0.01 0.01 0.01 0.01 0.00 0.00 0.00 0.00 0.00 0.00 0.00 0.00 0.00 0.00 0.00 0.00 0.00 0.00 0.00 0.01 0.00 0.00 0.01 0.02 0.02 0.02 0.01 0.00 0.00 0.01 0.01 0.02 0.04 0.04 0.03 0.03 0.02 0.01 0.00 0.01 0.01 0.01 0.01
0.00 0.00 0.00 0.00 0.00 0.00 0.00 0.00 0.00 0.00 0.01 0.01 0.00 0.01 0.01 0.00 0.00 0.00 0.00 0.00 0.00 0.00 0.00 0.00 0.00 0.01 0.01 0.01 0.01 0.02 0.02 0.01 0.01 0.00 0.00 0.00 0.00 0.01 0.03 0.02 0.02 0.05 0.04 0.01 0.00 0.01 0.01 0.02 0.01
0.00 0.00 0.00 0.00 0.00 0.00 0.00 0.00 0.00 0.01 0.01 0.02 0.00 0.01 0.01 0.00 0.00 0.00 0.00 0.00 0.00 0.00 0.00 0.00 0.00 0.01 0.01 0.01 0.00 0.01 0.01 0.01 0.01 0.02 0.02 0.02 0.01 0.03 0.05 0.04 0.04 0.02 0.01 0.00 0.00 0.01 0.02 0.02 0.01
0.00 0.00 0.00 0.00 0.00 0.00 0.00 0.00 0.00 0.01 0.02 0.01 0.01 0.01 0.00 0.00 0.00 0.00 0.00 0.00 0.00 0.00 0.00 0.00 0.00 0.00 0.00 0.00 0.00 0.00 0.00 0.00 0.00 0.01 0.04 0.05 0.06 0.05 0.03 0.05 0.04 0.03 0.02 0.01 0.02 0.03 0.03 0.04 0.02
0.00 0.00 0.00 0.00 0.00 0.00 0.00 0.00 0.00 0.01 0.03 0.03 0.02 0.01 0.00 0.00 0.00 0.00 0.00 0.00 0.00 0.00 0.00 0.00 0.00 0.00 0.00 0.00 0.00 0.00 0.00 0.00 0.00 0.00 0.00 0.01 0.01 0.01 0.00 0.02 0.07 0.07 0.06 0.09 0.14 0.15 0.16 0.12 0.09
0.00 0.00 0.00 0.00 0.00 0.00 0.00 0.00 0.00 0.02 0.06 0.12 0.10 0.05 0.01 0.00 0.00 0.00 0.00 0.00 0.00 0.00 0.00 0.00 0.00 0.00 0.00 0.00 0.00 0.00 0.00 0.00 0.00 0.00 0.00 0.00 0.00 0.00 0.02 0.07 0.12 0.13 0.12 0.17 0.10 0.12 0.11 0.04 0.02
0.00 0.00 0.00 0.00 0.00 0.00 0.00 0.00 0.01 0.01 0.04 0.17 0.24 0.17 0.02 0.00 0.00 0.00 0.00 0.00 0.00 0.00 0.00 0.00 0.00 0.00 0.00 0.00 0.00 0.00 0.00 0.00 0.00 0.00 0.00 0.00 0.01 0.04 0.07 0.07 0.09 0.04 0.08 0.11 0.07 0.04 0.06 0.08 0.05
0.00 0.00 0.00 0.00 0.00 0.00 0.00 0.00 0.00 0.02 0.03 0.13 0.22 0.20 0.06 0.01 0.00 0.00 0.00 0.00 0.00 0.00 0.00 0.00 0.00 0.00 0.00 0.00 0.00 0.00 0.00 0.00 0.00 0.00 0.00 0.00 0.02 0.06 0.12 0.11 0.08 0.06 0.07 0.12 0.14 0.12 0.21 0.15 0.09
0.00 0.00 0.00 0.00 0.00 0.00 0.00 0.00 0.01 0.03 0.02 0.08 0.17 0.17 0.07 0.02 0.01 0.00 0.00 0.00 0.00 0.00 0.00 0.01 0.01 0.00 0.00 0.00 0.00 0.00 0.01 0.00 0.00 0.00 0.00 0.00 0.01 0.06 0.11 0.15 0.11 0.12 0.10 0.15 0.18 0.22 0.26 0.12 0.10
0.00 0.00 0.00 0.00 0.00 0.00 0.00 0.00 0.00 0.00 0.01 0.03 0.11 0.20 0.15 0.11 0.11 0.07 0.02 0.01 0.01 0.00 0.00 0.02 0.05 0.01 0.00 0.00 0.00 0.02 0.02 0.00 0.00 0.00 0.00 0.02 0.04 0.06 0.11 0.13 0.09 0.12 0.19 0.22 0.22 0.26 0.23 0.16 0.09
0.00 0.00 0.00 0.00 0.00 0.00 0.00 0.00 0.00 0.01 0.02 0.05 0.10 0.20 0.30 0.35 0.41 0.35 0.17 0.06 0.03 0.02 0.01 0.02 0.02 0.00 0.01 0.02 0.02 0.06 0.08 0.04 0.03 0.02 0.03 0.04 0.05 0.07 0.12 0.13 0.15 0.19 0.22 0.23 0.17 0.21 0.18 0.21 0.16
0.00 0.00 0.00 0.00 0.00 0.00 0.00 0.00 0.00 0.00 0.02 0.07 0.17 0.33 0.49 0.71 0.88 0.68 0.37 0.13 0.07 0.06 0.07 0.09 0.08 0.04 0.02 0.02 0.03 0.08 0.09 0.06 0.05 0.06 0.08 0.09 0.08 0.10 0.18 0.21 0.23 0.23 0.27 0.27 0.24 0.27 0.30 0.30 0.25
0.00 0.00 0.00 0.00 0.00 0.00 0.00 0.00 0.00 0.00 0.01 0.03 0.11 0.31 0.54 0.57 0.63 0.54 0.31 0.20 0.19 0.28 0.29 0.28 0.25 0.14 0.06 0.04 0.03 0.04 0.04 0.02 0.03 0.05 0.07 0.07 0.07 0.10 0.18 0.16 0.23 0.21 0.20 0.27 0.29 0.34 0.32 0.34 0.36
0.00 0.00 0.00 0.00 0.00 0.00 0.00 0.00 0.00 0.00 0.00 0.01 0.02 0.06 0.17 0.26 0.29 0.30 0.25 0.26 0.44 0.60 0.56 0.47 0.34 0.21 0.13 0.10 0.08 0.06 0.04 0.03 0.04 0.04 0.04 0.03 0.03 0.05 0.10 0.15 0.17 0.21 0.31 0.41 0.43 0.52 0.46 0.33 0.36
0.00 0.00 0.00 0.00 0.00 0.00 0.00 0.00 0.00 0.00 0.00 0.01 0.01 0.02 0.05 0.12 0.20 0.26 0.29 0.32 0.40 0.42 0.44 0.45 0.38 0.26 0.20 0.16 0.11 0.07 0.06 0.05 0.03 0.02 0.01 0.02 0.03 0.05 0.12 0.18 0.24 0.38 0.47 0.51 0.55 0.55 0.54 0.42 0.41
0.00 0.00 0.00 0.00 0.00 0.00 0.00 0.00 0.00 0.00 0.00 0.00 0.01 0.03 0.06 0.12 0.17 0.23 0.26 0.28 0.31 0.31 0.36 0.40 0.35 0.27 0.23 0.20 0.15 0.10 0.07 0.04 0.02 0.01 0.02 0.04 0.06 0.11 0.16 0.20 0.28 0.34 0.40 0.46 0.43 0.50 0.60 0.55 0.46
0.00 0.00 0.00 0.00 0.00 0.00 0.00 0.00 0.00 0.00 0.00 0.01 0.05 0.09 0.16 0.21 0.23 0.22 0.23 0.20 0.19 0.19 0.22 0.23 0.21 0.18 0.16 0.13 0.11 0.08 0.05 0.03 0.02 0.03 0.06 0.09 0.12 0.19 0.23 0.25 0.28 0.28 0.31 0.41 0.46 0.52 0.55 0.55 0.50
0.00 0.00 0.00 0.00 0.00 0.00 0.00 0.00 0.00 0.00 0.00 0.04 0.16 0.24 0.31 0.37 0.37 0.34 0.30 0.23 0.16 0.12 0.11 0.10 0.10 0.09 0.07 0.05 0.05 0.04 0.02 0.02 0.02 0.03 0.07 0.08 0.12 0.18 0.25 0.30 0.33 0.33 0.37 0.45 0.48 0.49 0.45 0.47 0.47
0.00 0.01 0.06 0.03 0.00 0.00 0.00 0.00 0.01 0.01 0.01 0.06 0.22 0.40 0.49 0.44 0.37 0.34 0.30 0.24 0.15 0.09 0.06 0.05 0.05 0.05 0.04 0.03 0.04 0.04 0.02 0.02 0.05 0.08 0.10 0.11 0.12 0.14 0.18 0.23 0.31 0.34 0.39 0.40 0.39 0.44 0.45 0.47 0.46
0.02 0.05 0.19 0.16 0.04 0.02 0.01 0.01 0.06 0.08 0.12 0.23 0.37 0.47 0.45 0.36 0.30 0.27 0.23 0.19 0.15 0.09 0.05 0.04 0.04 0.06 0.06 0.05 0.05 0.03 0.01 0.02 0.04 0.05 0.09 0.10 0.11 0.11 0.14 0.20 0.30 0.34 0.37 0.39 0.39 0.37 0.38 0.41 0.42
0.05 0.09 0.11 0.24 0.18 0.12 0.02 0.02 0.09 0.15 0.29 0.51 0.67 0.66 0.55 0.40 0.28 0.22 0.17 0.13 0.11 0.08 0.06 0.07 0.07 0.05 0.04 0.03 0.02 0.01 0.00 0.01 0.03 0.05 0.09 0.12 0.14 0.12 0.13 0.18 0.24 0.34 0.43 0.48 0.46 0.43 0.42 0.45 0.47
0.03 0.05 0.07 0.20 0.21 0.19 0.06 0.04 0.13 0.35 0.49 0.60 0.71 0.64 0.46 0.32 0.22 0.18 0.13 0.11 0.09 0.07 0.06 0.07 0.06 0.03 0.01 0.01 0.00 0.00 0.00 0.01 0.03 0.04 0.05 0.07 0.09 0.11 0.15 0.20 0.24 0.26 0.30 0.33 0.33 0.38 0.41 0.43 0.41
0.05 0.08 0.15 0.23 0.22 0.25 0.21 0.17 0.22 0.36 0.51 0.60 0.61 0.49 0.33 0.22 0.14 0.12 0.11 0.11 0.10 0.06 0.06 0.07 0.07 0.06 0.04 0.02 0.01 0.00 0.00 0.01 0.01 0.01 0.04 0.07 0.07 0.08 0.11 0.14 0.13 0.12 0.10 0.10 0.11 0.14 0.17 0.18 0.15
0.03 0.07 0.16 0.26 0.24 0.24 0.26 0.19 0.13 0.16 0.24 0.32 0.34 0.29 0.23 0.17 0.14 0.14 0.13 0.10 0.07 0.05 0.04 0.05 0.05 0.04 0.02 0.02 0.02 0.00 0.01 0.00 0.00 0.00 0.00 0.01 0.02 0.04 0.06 0.06 0.04 0.02 0.02 0.02 0.03 0.03 0.03 0.03 0.03

GEFSSGP_prec_meanprecacc_018.txt.gz
Total_Precipitation_Accumulation
0.00 0.00 0.00 0.00 0.03 0.06 0.17 0.23 0.06 0.01 0.00 0.00 0.00 0.00 0.00 0.00 0.01 0.00 0.00 0.00 0.00 0.00 0.00 0.00 0.00 0.01 0.02 0.05 0.05 0.06 0.05 0.01 0.01 0.01 0.03 0.06 0.03 0.01 0.00 0.00 0.00 0.00 0.00 0.00 0.01 0.01 0.01 0.00 0.00
0.00 0.00 0.00 0.00 0.01 0.02 0.17 0.26 0.08 0.03 0.01 0.00 0.00 0.00 0.00 0.00 0.00 0.00 0.00 0.00 0.00 0.00 0.00 0.00 0.00 0.01 0.01 0.03 0.05 0.07 0.06 0.03 0.02 0.04 0.06 0.07 0.04 0.01 0.00 0.00 0.00 0.00 0.00 0.00 0.00 0.01 0.00 0.00 0.00
0.00 0.00 0.00 0.00 0.00 0.01 0.09 0.14 0.03 0.01 0.00 0.00 0.00 0.00 0.00 0.00 0.00 0.00 0.00 0.00 0.00 0.00 0.00 0.01 0.01 0.01 0.01 0.02 0.03 0.07 0.09 0.06 0.05 0.08 0.09 0.07 0.05 0.03 0.02 0.01 0.02 0.02 0.00 0.00 0.00 0.01 0.01 0.00 0.00
0.00 0.00 0.00 0.00 0.00 0.02 0.05 0.04 0.03 0.02 0.00 0.00 0.00 0.00 0.00 0.00 0.00 0.00 0.00 0.00 0.00 0.00 0.00 0.00 0.02 0.02 0.02 0.02 0.02 0.04 0.09 0.08 0.06 0.08 0.11 0.09 0.10 0.11 0.06 0.02 0.04 0.04 0.02 0.01 0.01 0.00 0.00 0.00 0.01
0.00 0.00 0.00 0.00 0.01 0.04 0.06 0.03 0.02 0.01 0.00 0.00 0.00 0.00 0.00 0.00 0.00 0.00 0.00 0.00 0.00 0.00 0.00 0.00 0.02 0.02 0.01 0.01 0.03 0.03 0.04 0.06 0.04 0.05 0.05 0.04 0.07 0.14 0.10 0.07 0.05 0.05 0.03 0.01 0.00 0.00 0.00 0.00 0.01
0.00 0.00 0.00 0.00 0.01 0.03 0.05 0.03 0.02 0.02 0.00 0.00 0.00 0.00 0.00 0.00 0.00 0.00 0.00 0.00 0.00 0.00 0.00 0.00 0.01 0.01 0.00 0.00 0.02 0.03 0.03 0.02 0.01 0.01 0.00 0.01 0.02 0.03 0.06 0.06 0.05 0.03 0.02 0.01 0.00 0.00 0.00 0.01 0.01
0.00 0.00 0.00 0.00 0.00 0.00 0.02 0.02 0.02 0.01 0.00 0.00 0.00 0.00 0.00 0.00 0.00 0.00 0.00 0.00 0.00 0.00 0.00 0.00 0.00 0.01 0.00 0.00 0.01 0.02 0.02 0.02 0.01 0.00 0.00 0.01 0.01 0.02 0.04 0.05 0.05 0.05 0.03 0.02 0.01 0.01 0.01 0.01 0.01
0.00 0.00 0.00 0.00 0.00 0.00 0.00 0.01 0.01 0.01 0.01 0.01 0.00 0.01 0.01 0.00 0.00 0.00 0.00 0.00 0.00 0.00 0.00 0.00 0.00 0.01 0.01 0.01 0.01 0.02 0.02 0.01 0.01 0.00 0.00 0.00 0.01 0.01 0.03 0.03 0.03 0.06 0.06 0.03 0.02 0.01 0.01 0.02 0.01
0.00 0.00 0.00 0.00 0.00 0.00 0.00 0.01 0.01 0.01 0.02 0.02 0.00 0.01 0.01 0.00 0.00 0.00 0.00 0.00 0.00 0.00 0.00 0.00 0.00 0.01 0.01 0.01 0.00 0.01 0.01 0.01 0.01 0.02 0.02 0.02 0.01 0.03 0.05 0.04 0.04 0.04 0.05 0.05 0.04 0.03 0.03 0.03 0.01
0.00 0.00 0.00 0.00 0.00 0.00 0.00 0.01 0.01 0.01 0.02 0.01 0.01 0.01 0.01 0.00 0.00 0.00 0.00 0.00 0.00 0.00 0.00 0.00 0.00 0.00 0.00 0.00 0.00 0.00 0.00 0.00 0.00 0.01 0.04 0.05 0.06 0.05 0.03 0.05 0.07 0.11 0.15 0.11 0.09 0.08 0.06 0.05 0.03
0.00 0.00 0.00 0.00 0.00 0.00 0.00 0.00 0.00 0.01 0.03 0.03 0.02 0.02 0.01 0.00 0.00 0.00 0.00 0.00 0.00 0.00 0.00 0.00 0.00 0.00 0.00 0.00 0.00 0.00 0.00 0.00 0.00 0.00 0.00 0.01 0.01 0.01 0.00 0.02 0.07 0.12 0.17 0.15 0.20 0.20 0.18 0.13 0.09
0.00 0.00 0.00 0.00 0.00 0.00 0.00 0.00 0.00 0.02 0.07 0.12 0.11 0.05 0.01 0.00 0.00 0.00 0.00 0.00 0.00 0.00 0.00 0.00 0.00 0.00 0.00 0.00 0.00 0.00 0.00 0.00 0.00 0.00 0.00 0.00 0.00 0.00 0.02 0.07 0.13 0.13 0.13 0.18 0.12 0.13 0.12 0.05 0.02
0.00 0.00 0.00 0.00 0.00 0.00 0.00 0.00 0.01 0.01 0.04 0.17 0.24 0.17 0.03 0.00 0.00 0.00 0.00 0.00 0.00 0.00 0.00 0.00 0.00 0.00 0.00 0.00 0.00 0.00 0.00 0.00 0.00 0.00 0.00 0.00 0.01 0.04 0.07 0.07 0.09 0.04 0.08 0.11 0.07 0.04 0.07 0.08 0.05
0.00 0.00 0.00 0.00 0.00 0.00 0.00 0.00 0.00 0.02 0.03 0.13 0.22 0.20 0.06 0.01 0.00 0.00 0.00 0.00 0.00 0.00 0.00 0.00 0.00 0.00 0.00 0.00 0.00 0.00 0.00 0.00 0.00 0.00 0.00 0.00 0.02 0.07 0.12 0.11 0.08 0.06 0.07 0.12 0.14 0.12 0.22 0.16 0.09
0.00 0.00 0.00 0.00 0.00 0.00 0.00 0.00 0.01 0.03 0.02 0.08 0.17 0.17 0.07 0.02 0.01 0.00 0.00 0.00 0.00 0.00 0.00 0.01 0.02 0.00 0.00 0.00 0.00 0.01 0.02 0.01 0.00 0.00 0.01 0.01 0.02 0.06 0.12 0.15 0.12 0.12 0.10 0.15 0.18 0.22 0.27 0.13 0.12
0.00 0.00 0.00 0.00 0.00 0.00 0.00 0.00 0.00 0.00 0.01 0.03 0.11 0.20 0.15 0.12 0.12 0.07 0.02 0.01 0.01 0.00 0.01 0.02 0.06 0.02 0.01 0.01 0.02 0.04 0.05 0.03 0.02 0.02 0.02 0.04 0.05 0.08 0.12 0.14 0.10 0.13 0.20 0.22 0.22 0.26 0.23 0.17 0.11
0.00 0.00 0.00 0.00 0.00 0.00 0.00 0.00 0.00 0.01 0.02 0.05 0.10 0.20 0.30 0.36 0.41 0.36 0.19 0.09 0.05 0.03 0.02 0.03 0.04 0.03 0.03 0.04 0.05 0.10 0.12 0.09 0.07 0.08 0.08 0.10 0.09 0.10 0.15 0.14 0.16 0.20 0.23 0.24 0.17 0.22 0.19 0.22 0.18
0.00 0.00 0.00 0.00 0.00 0.00 0.00 0.00 0.00 0.00 0.02 0.07 0.18 0.34 0.49 0.72 0.89 0.70 0.42 0.18 0.12 0.10 0.10 0.12 0.12 0.09 0.08 0.09 0.10 0.15 0.17 0.15 0.16 0.17 0.19 0.19 0.15 0.15 0.21 0.22 0.25 0.24 0.28 0.27 0.25 0.29 0.32 0.33 0.29
0.00 0.00 0.00 0.00 0.00 0.00 0.00 0.00 0.00 0.00 0.01 0.04 0.11 0.32 0.55 0.59 0.65 0.57 0.35 0.24 0.23 0.33 0.34 0.34 0.34 0.29 0.26 0.26 0.27 0.28 0.26 0.21 0.20 0.20 0.19 0.18 0.15 0.15 0.22 0.19 0.24 0.22 0.21 0.27 0.30 0.36 0.34 0.36 0.42
0.00 0.00 0.00 0.00 0.00 0.00 0.00 0.00 0.00 0.01 0.01 0.02 0.04 0.10 0.22 0.32 0.35 0.35 0.30 0.31 0.48 0.66 0.65 0.61 0.55 0.49 0.51 0.55 0.58 0.57 0.52 0.42 0.33 0.27 0.21 0.16 0.13 0.13 0.15 0.18 0.18 0.21 0.31 0.42 0.44 0.54 0.48 0.35 0.42
0.00 0.00 0.00 0.00 0.00 0.00 0.00 0.00 0.00 0.01 0.02 0.06 0.10 0.16 0.21 0.29 0.35 0.40 0.41 0.43 0.50 0.55 0.60 0.70 0.74 0.72 0.74 0.77 0.76 0.70 0.67 0.60 0.46 0.30 0.21 0.17 0.14 0.13 0.16 0.20 0.25 0.38 0.47 0.51 0.55 0.56 0.55 0.44 0.44
0.00 0.00 0.00 0.00 0.00 0.00 0.00 0.00 0.00 0.00 0.02 0.06 0.12 0.19 0.26 0.31 0.35 0.43 0.47 0.47 0.48 0.50 0.60 0.76 0.86 0.87 0.90 0.93 0.89 0.78 0.65 0.51 0.39 0.29 0.21 0.17 0.14 0.15 0.18 0.21 0.28 0.34 0.40 0.46 0.43 0.51 0.61 0.57 0.48
0.00 0.00 0.00 0.00 0.00 0.00 0.00 0.00 0.00 0.00 0.01 0.04 0.11 0.19 0.31 0.36 0.38 0.39 0.45 0.47 0.48 0.54 0.65 0.73 0.79 0.82 0.83 0.80 0.77 0.69 0.54 0.40 0.30 0.22 0.19 0.17 0.16 0.20 0.24 0.25 0.28 0.28 0.31 0.41 0.46 0.53 0.57 0.59 0.55
0.00 0.00 0.00 0.00 0.00 0.00 0.00 0.00 0.00 0.00 0.01 0.05 0.19 0.30 0.42 0.51 0.53 0.53 0.55 0.55 0.56 0.64 0.73 0.78 0.76 0.72 0.67 0.61 0.60 0.53 0.41 0.30 0.21 0.17 0.15 0.12 0.14 0.18 0.25 0.30 0.33 0.33 0.37 0.45 0.48 0.50 0.48 0.51 0.52
0.00 0.01 0.06 0.03 0.00 0.00 0.00 0.00 0.01 0.02 0.02 0.07 0.24 0.44 0.56 0.55 0.52 0.51 0.52 0.55 0.57 0.57 0.57 0.58 0.54 0.48 0.42 0.37 0.34 0.31 0.24 0.17 0.13 0.13 0.13 0.12 0.12 0.14 0.18 0.23 0.31 0.34 0.39 0.40 0.39 0.44 0.47 0.51 0.52
0.02 0.05 0.20 0.17 0.04 0.02 0.01 0.01 0.06 0.09 0.12 0.24 0.38 0.49 0.51 0.46 0.43 0.41 0.39 0.38 0.40 0.40 0.39 0.40 0.40 0.39 0.37 0.30 0.23 0.15 0.10 0.07 0.07 0.07 0.09 0.11 0.11 0.11 0.14 0.20 0.30 0.34 0.37 0.39 0.39 0.38 0.40 0.44 0.47
0.05 0.09 0.11 0.24 0.18 0.12 0.02 0.02 0.09 0.15 0.29 0.52 0.68 0.68 0.60 0.46 0.38 0.33 0.29 0.26 0.25 0.27 0.30 0.34 0.36 0.35 0.34 0.29 0.20 0.11 0.06 0.04 0.04 0.06 0.09 0.12 0.14 0.12 0.13 0.18 0.24 0.34 0.43 0.48 0.46 0.43 0.44 0.48 0.53
0.03 0.05 0.07 0.20 0.21 0.19 0.06 0.04 0.13 0.35 0.49 0.61 0.71 0.65 0.49 0.37 0.29 0.24 0.21 0.19 0.18 0.19 0.24 0.29 0.32 0.28 0.23 0.18 0.12 0.06 0.03 0.03 0.04 0.04 0.05 0.07 0.09 0.11 0.15 0.20 0.24 0.26 0.30 0.33 0.33 0.38 0.42 0.45 0.46
0.05 0.08 0.15 0.23 0.22 0.25 0.21 0.17 0.22 0.36 0.51 0.60 0.61 0.50 0.35 0.26 0.19 0.17 0.17 0.18 0.18 0.16 0.19 0.23 0.26 0.26 0.22 0.13 0.07 0.03 0.02 0.02 0.01 0.01 0.04 0.07 0.07 0.08 0.11 0.14 0.13 0.12 0.10 0.10 0.11 0.14 0.18 0.19 0.17
0.03 0.07 0.16 0.26 0.24 0.24 0.26 0.19 0.13 0.16 0.24 0.32 0.34 0.30 0.25 0.20 0.18 0.20 0.22 0.21 0.18 0.17 0.19 0.20 0.21 0.20 0.17 0.12 0.07 0.03 0.02 0.01 0.00 0.00 0.00 0.01 0.02 0.04 0.06 0.06 0.04 0.02 0.02 0.02 0.03 0.03 0.03 0.04 0.04

GEFSSGP_prec_meanprecacc_024.txt.gz
Total_Precipitation_Accumulation
0.00 0.00 0.00 0.00 0.03 0.06 0.17 0.23 0.06 0.01 0.00 0.00 0.00 0.00 0.00 0.00 0.01 0.00 0.00 0.00 0.00 0.00 0.00 0.00 0.00 0.01 0.02 0.05 0.05 0.06 0.05 0.01 0.01 0.01 0.03 0.06 0.03 0.01 0.00 0.00 0.00 0.00 0.00 0.00 0.01 0.01 0.01 0.00 0.00
0.00 0.00 0.00 0.00 0.01 0.02 0.17 0.26 0.08 0.03 0.01 0.00 0.00 0.00 0.00 0.00 0.00 0.00 0.00 0.00 0.00 0.00 0.00 0.00 0.00 0.01 0.01 0.03 0.05 0.07 0.06 0.03 0.02 0.04 0.06 0.07 0.04 0.01 0.00 0.00 0.00 0.00 0.00 0.00 0.00 0.01 0.00 0.00 0.00
0.00 0.00 0.00 0.00 0.00 0.01 0.09 0.14 0.03 0.01 0.00 0.00 0.00 0.00 0.00 0.00 0.00 0.00 0.00 0.00 0.00 0.00 0.00 0.01 0.01 0.01 0.01 0.02 0.03 0.07 0.09 0.06 0.05 0.08 0.09 0.07 0.06 0.03 0.02 0.01 0.02 0.02 0.00 0.00 0.00 0.01 0.01 0.00 0.00
0.00 0.00 0.00 0.00 0.00 0.02 0.05 0.04 0.03 0.02 0.00 0.00 0.00 0.00 0.00 0.00 0.00 0.00 0.00 0.00 0.00 0.00 0.00 0.00 0.02 0.02 0.02 0.02 0.02 0.04 0.09 0.08 0.06 0.08 0.11 0.09 0.10 0.12 0.07 0.03 0.04 0.04 0.02 0.01 0.01 0.00 0.00 0.01 0.01
0.00 0.00 0.00 0.00 0.01 0.04 0.06 0.03 0.02 0.01 0.00 0.00 0.00 0.00 0.00 0.00 0.00 0.00 0.00 0.00 0.00 0.00 0.00 0.00 0.02 0.02 0.01 0.01 0.03 0.03 0.04 0.06 0.04 0.05 0.05 0.04 0.07 0.14 0.11 0.07 0.05 0.05 0.03 0.02 0.01 0.00 0.01 0.01 0.01
0.00 0.00 0.00 0.00 0.01 0.03 0.05 0.03 0.02 0.02 0.00 0.00 0.00 0.00 0.00 0.00 0.00 0.00 0.00 0.00 0.00 0.00 0.00 0.00 0.01 0.01 0.00 0.00 0.02 0.03 0.03 0.02 0.01 0.01 0.00 0.01 0.02 0.03 0.06 0.06 0.06 0.04 0.02 0.02 0.01 0.01 0.01 0.01 0.02
0.00 0.00 0.00 0.00 0.00 0.00 0.02 0.02 0.02 0.01 0.00 0.00 0.00 0.00 0.00 0.00 0.00 0.00 0.00 0.00 0.00 0.00 0.00 0.00 0.00 0.01 0.00 0.00 0.01 0.02 0.02 0.02 0.01 0.00 0.00 0.01 0.01 0.02 0.04 0.05 0.05 0.05 0.04 0.03 0.02 0.02 0.02 0.02 0.02
0.00 0.00 0.00 0.00 0.00 0.00 0.00 0.01 0.01 0.01 0.01 0.01 0.00 0.01 0.01 0.00 0.00 0.00 0.00 0.00 0.00 0.00 0.00 0.00 0.00 0.01 0.01 0.01 0.01 0.02 0.02 0.01 0.01 0.00 0.00 0.00 0.01 0.01 0.03 0.03 0.03 0.06 0.07 0.04 0.03 0.02 0.02 0.03 0.02
0.00 0.00 0.00 0.00 0.00 0.00 0.00 0.01 0.01 0.01 0.02 0.02 0.00 0.01 0.01 0.00 0.00 0.00 0.00 0.00 0.00 0.00 0.00 0.00 0.00 0.01 0.01 0.01 0.00 0.01 0.01 0.01 0.01 0.02 0.02 0.02 0.01 0.03 0.06 0.04 0.05 0.05 0.07 0.07 0.06 0.06 0.06 0.05 0.02
0.00 0.00 0.00 0.00 0.00 0.00 0.00 0.01 0.01 0.01 0.02 0.01 0.01 0.01 0.01 0.00 0.00 0.00 0.00 0.00 0.00 0.00 0.00 0.00 0.00 0.00 0.00 0.00 0.00 0.00 0.00 0.00 0.00 0.01 0.04 0.06 0.07 0.05 0.03 0.05 0.07 0.14 0.20 0.16 0.13 0.15 0.10 0.08 0.06
0.00 0.00 0.00 0.00 0.00 0.00 0.00 0.00 0.00 0.01 0.03 0.03 0.02 0.02 0.01 0.00 0.00 0.00 0.00 0.00 0.00 0.00 0.00 0.00 0.00 0.00 0.00 0.00 0.00 0.00 0.00 0.00 0.00 0.00 0.00 0.01 0.01 0.01 0.00 0.02 0.08 0.12 0.19 0.18 0.25 0.28 0.24 0.21 0.18
0.00 0.00 0.00 0.00 0.00 0.00 0.00 0.00 0.00 0.02 0.07 0.12 0.11 0.05 0.01 0.00 0.00 0.00 0.00 0.00 0.00 0.00 0.00 0.00 0.00 0.00 0.00 0.00 0.00 0.00 0.00 0.00 0.00 0.00 0.00 0.00 0.00 0.00 0.02 0.07 0.13 0.13 0.14 0.22 0.19 0.24 0.22 0.11 0.07
0.00 0.00 0.00 0.00 0.00 0.00 0.00 0.00 0.01 0.01 0.04 0.17 0.24 0.17 0.03 0.00 0.00 0.00 0.00 0.00 0.00 0.00 0.00 0.00 0.00 0.00 0.00 0.00 0.00 0.00 0.00 0.00 0.00 0.00 0.00 0.00 0.01 0.04 0.08 0.07 0.09 0.05 0.09 0.14 0.12 0.09 0.12 0.12 0.07
0.00 0.00 0.00 0.00 0.00 0.00 0.00 0.00 0.00 0.02 0.03 0.13 0.22 0.20 0.06 0.01 0.00 0.00 0.00 0.00 0.00 0.00 0.00 0.00 0.00 0.00 0.00 0.00 0.00 0.00 0.00 0.00 0.00 0.00 0.00 0.00 0.02 0.08 0.13 0.12 0.10 0.08 0.10 0.16 0.17 0.15 0.26 0.19 0.12
0.00 0.00 0.00 0.00 0.00 0.00 0.00 0.00 0.01 0.03 0.02 0.08 0.17 0.17 0.07 0.02 0.01 0.00 0.00 0.00 0.00 0.00 0.00 0.01 0.02 0.00 0.00 0.00 0.00 0.01 0.02 0.01 0.01 0.01 0.01 0.02 0.04 0.10 0.17 0.19 0.16 0.17 0.16 0.21 0.23 0.26 0.31 0.16 0.13
0.00 0.00 0.00 0.00 0.00 0.00 0.00 0.00 0.00 0.00 0.01 0.03 0.11 0.20 0.15 0.12 0.12 0.07 0.02 0.01 0.01 0.00 0.01 0.03 0.06 0.02 0.01 0.01 0.02 0.04 0.05 0.04 0.04 0.04 0.06 0.09 0.12 0.16 0.23 0.23 0.18 0.25 0.30 0.30 0.30 0.33 0.28 0.21 0.15
0.00 0.00 0.00 0.00 0.00 0.00 0.00 0.00 0.00 0.01 0.02 0.05 0.10 0.20 0.30 0.36 0.41 0.36 0.19 0.09 0.05 0.03 0.03 0.04 0.04 0.03 0.04 0.05 0.06 0.10 0.13 0.11 0.13 0.16 0.17 0.22 0.23 0.26 0.33 0.29 0.31 0.34 0.34 0.35 0.24 0.28 0.25 0.27 0.23
0.00 0.00 0.00 0.00 0.00 0.00 0.00 0.00 0.00 0.00 0.02 0.07 0.18 0.34 0.49 0.72 0.90 0.70 0.42 0.18 0.12 0.11 0.11 0.13 0.14 0.11 0.12 0.14 0.14 0.19 0.22 0.22 0.26 0.32 0.38 0.41 0.38 0.38 0.44 0.41 0.42 0.38 0.39 0.37 0.34 0.36 0.38 0.37 0.34
0.00 0.00 0.00 0.00 0.00 0.00 0.00 0.00 0.00 0.00 0.01 0.04 0.11 0.32 0.55 0.59 0.66 0.57 0.36 0.25 0.24 0.34 0.37 0.39 0.40 0.35 0.35 0.36 0.39 0.46 0.49 0.49 0.49 0.48 0.46 0.45 0.41 0.41 0.49 0.42 0.43 0.35 0.30 0.34 0.36 0.41 0.38 0.39 0.47
0.00 0.00 0.00 0.00 0.00 0.00 0.00 0.00 0.00 0.01 0.01 0.02 0.04 0.10 0.22 0.32 0.36 0.37 0.32 0.33 0.50 0.70 0.70 0.68 0.62 0.59 0.66 0.77 0.86 0.94 0.96 0.87 0.76 0.69 0.62 0.56 0.51 0.49 0.48 0.46 0.38 0.33 0.38 0.46 0.47 0.56 0.50 0.36 0.44
0.00 0.00 0.00 0.00 0.00 0.00 0.00 0.00 0.00 0.01 0.02 0.06 0.10 0.16 0.22 0.29 0.36 0.42 0.44 0.48 0.56 0.64 0.70 0.80 0.83 0.84 0.89 0.99 1.08 1.12 1.12 1.07 0.96 0.83 0.74 0.66 0.55 0.48 0.47 0.44 0.41 0.47 0.52 0.55 0.57 0.57 0.56 0.45 0.45
0.00 0.00 0.00 0.00 0.00 0.00 0.00 0.00 0.00 0.00 0.02 0.06 0.12 0.19 0.26 0.32 0.36 0.45 0.51 0.52 0.54 0.57 0.68 0.85 0.95 0.97 1.03 1.10 1.13 1.11 1.10 1.00 0.93 0.87 0.77 0.67 0.57 0.51 0.46 0.43 0.43 0.43 0.44 0.48 0.43 0.51 0.62 0.59 0.49
0.00 0.00 0.00 0.00 0.00 0.00 0.00 0.00 0.00 0.00 0.01 0.04 0.11 0.19 0.31 0.37 0.38 0.40 0.47 0.49 0.50 0.58 0.69 0.79 0.88 0.91 0.93 0.93 0.93 0.93 0.90 0.87 0.84 0.75 0.69 0.59 0.52 0.50 0.46 0.41 0.39 0.35 0.34 0.42 0.47 0.53 0.57 0.60 0.57
0.00 0.00 0.00 0.00 0.00 0.00 0.00 0.00 0.00 0.00 0.01 0.05 0.19 0.30 0.42 0.51 0.53 0.54 0.55 0.56 0.57 0.66 0.75 0.81 0.81 0.78 0.75 0.72 0.73 0.74 0.75 0.77 0.74 0.69 0.66 0.58 0.50 0.47 0.47 0.46 0.42 0.38 0.39 0.46 0.49 0.51 0.48 0.52 0.55
0.00 0.01 0.06 0.03 0.00 0.00 0.00 0.00 0.01 0.02 0.02 0.07 0.24 0.44 0.56 0.55 0.52 0.51 0.52 0.55 0.58 0.58 0.58 0.60 0.58 0.53 0.48 0.46 0.46 0.47 0.47 0.50 0.53 0.53 0.50 0.42 0.35 0.33 0.32 0.33 0.38 0.38 0.41 0.40 0.40 0.45 0.48 0.52 0.54
0.02 0.05 0.20 0.17 0.04 0.02 0.01 0.01 0.06 0.09 0.12 0.24 0.38 0.49 0.51 0.46 0.43 0.41 0.39 0.38 0.40 0.40 0.39 0.42 0.43 0.45 0.44 0.39 0.36 0.30 0.26 0.26 0.26 0.27 0.28 0.26 0.23 0.21 0.21 0.26 0.34 0.37 0.38 0.39 0.40 0.39 0.41 0.46 0.49
0.05 0.09 0.11 0.24 0.18 0.12 0.02 0.02 0.09 0.15 0.29 0.52 0.68 0.68 0.60 0.46 0.38 0.33 0.29 0.26 0.25 0.27 0.31 0.36 0.40 0.43 0.46 0.44 0.36 0.29 0.22 0.19 0.18 0.17 0.19 0.20 0.21 0.17 0.17 0.20 0.26 0.35 0.44 0.48 0.47 0.45 0.45 0.50 0.55
0.03 0.05 0.07 0.20 0.21 0.19 0.06 0.04 0.13 0.35 0.49 0.61 0.71 0.65 0.49 0.37 0.29 0.24 0.21 0.19 0.18 0.20 0.24 0.32 0.36 0.36 0.37 0.36 0.33 0.26 0.20 0.17 0.16 0.13 0.13 0.12 0.12 0.14 0.17 0.21 0.25 0.27 0.31 0.34 0.34 0.39 0.43 0.47 0.49
0.05 0.08 0.15 0.23 0.22 0.25 0.21 0.17 0.22 0.36 0.51 0.60 0.61 0.50 0.35 0.26 0.19 0.17 0.17 0.18 0.18 0.17 0.22 0.29 0.35 0.38 0.39 0.37 0.35 0.27 0.19 0.16 0.14 0.10 0.08 0.10 0.09 0.10 0.12 0.15 0.14 0.12 0.11 0.11 0.12 0.15 0.19 0.21 0.20
0.03 0.07 0.16 0.26 0.24 0.24 0.26 0.19 0.13 0.16 0.24 0.32 0.34 0.30 0.25 0.20 0.18 0.20 0.22 0.22 0.20 0.20 0.26 0.32 0.36 0.41 0.44 0.45 0.44 0.38 0.29 0.24 0.19 0.13 0.07 0.04 0.04 0.06 0.07 0.07 0.04 0.03 0.02 0.03 0.04 0.04 0.05 0.06 0.06

GEFSSGP_prec_meanprecacc_030.txt.gz
Total_Precipitation_Accumulation
0.00 0.00 0.00 0.02 0.03 0.07 0.18 0.23 0.06 0.01 0.00 0.00 0.00 0.00 0.00 0.00 0.01 0.02 0.00 0.00 0.00 0.00 0.00 0.00 0.00 0.01 0.03 0.05 0.05 0.06 0.05 0.02 0.01 0.01 0.03 0.06 0.03 0.01 0.00 0.00 0.00 0.00 0.00 0.00 0.01 0.01 0.01 0.00 0.00
0.00 0.00 0.00 0.00 0.02 0.05 0.18 0.26 0.08 0.03 0.01 0.00 0.00 0.00 0.00 0.00 0.00 0.00 0.00 0.00 0.00 0.00 0.00 0.00 0.00 0.01 0.02 0.03 0.05 0.07 0.06 0.03 0.02 0.04 0.06 0.07 0.04 0.01 0.00 0.00 0.00 0.00 0.00 0.00 0.00 0.01 0.00 0.00 0.00
0.00 0.00 0.00 0.00 0.05 0.05 0.09 0.14 0.03 0.01 0.00 0.00 0.00 0.00 0.00 0.00 0.00 0.00 0.00 0.00 0.00 0.00 0.00 0.01 0.01 0.01 0.02 0.02 0.03 0.07 0.09 0.06 0.05 0.08 0.09 0.07 0.06 0.04 0.02 0.02 0.02 0.02 0.00 0.00 0.00 0.01 0.01 0.00 0.00
0.00 0.00 0.00 0.00 0.03 0.04 0.05 0.04 0.03 0.02 0.00 0.00 0.00 0.00 0.00 0.00 0.00 0.00 0.00 0.00 0.00 0.00 0.00 0.00 0.02 0.02 0.02 0.02 0.02 0.04 0.09 0.08 0.06 0.08 0.11 0.09 0.11 0.12 0.07 0.03 0.04 0.05 0.02 0.01 0.01 0.00 0.00 0.01 0.01
0.00 0.00 0.00 0.00 0.02 0.04 0.06 0.03 0.02 0.01 0.00 0.00 0.00 0.00 0.00 0.00 0.00 0.00 0.00 0.00 0.00 0.00 0.00 0.00 0.02 0.02 0.01 0.02 0.03 0.03 0.05 0.06 0.04 0.05 0.05 0.04 0.08 0.15 0.11 0.07 0.05 0.05 0.03 0.02 0.01 0.01 0.01 0.01 0.01
0.00 0.00 0.00 0.00 0.01 0.03 0.05 0.03 0.02 0.02 0.00 0.00 0.00 0.00 0.00 0.00 0.00 0.00 0.00 0.00 0.00 0.00 0.00 0.00 0.01 0.01 0.01 0.00 0.02 0.04 0.04 0.02 0.01 0.01 0.00 0.01 0.02 0.03 0.06 0.07 0.06 0.04 0.02 0.02 0.01 0.01 0.01 0.01 0.02
0.00 0.00 0.00 0.00 0.00 0.00 0.02 0.02 0.02 0.01 0.00 0.00 0.00 0.00 0.00 0.00 0.00 0.00 0.00 0.00 0.00 0.00 0.00 0.00 0.00 0.01 0.00 0.00 0.01 0.02 0.02 0.02 0.01 0.00 0.00 0.01 0.01 0.02 0.04 0.05 0.05 0.05 0.04 0.03 0.02 0.02 0.02 0.02 0.02
0.00 0.00 0.00 0.00 0.00 0.00 0.00 0.01 0.01 0.01 0.01 0.01 0.00 0.01 0.01 0.00 0.00 0.00 0.00 0.00 0.00 0.00 0.00 0.00 0.00 0.01 0.01 0.01 0.01 0.02 0.02 0.01 0.01 0.00 0.00 0.00 0.01 0.01 0.03 0.03 0.03 0.06 0.07 0.04 0.03 0.02 0.02 0.03 0.02
0.00 0.00 0.00 0.00 0.00 0.00 0.00 0.01 0.01 0.01 0.02 0.02 0.00 0.01 0.01 0.00 0.00 0.00 0.00 0.00 0.00 0.00 0.00 0.00 0.00 0.01 0.01 0.01 0.00 0.01 0.01 0.01 0.01 0.02 0.02 0.02 0.01 0.04 0.07 0.05 0.05 0.06 0.07 0.07 0.06 0.07 0.07 0.06 0.03
0.00 0.00 0.00 0.00 0.00 0.00 0.00 0.01 0.01 0.01 0.02 0.01 0.01 0.01 0.01 0.00 0.00 0.00 0.00 0.00 0.00 0.00 0.00 0.00 0.00 0.00 0.01 0.00 0.00 0.00 0.00 0.00 0.00 0.01 0.04 0.07 0.10 0.10 0.04 0.06 0.09 0.15 0.20 0.16 0.14 0.16 0.11 0.10 0.08
0.00 0.00 0.00 0.00 0.00 0.00 0.00 0.00 0.00 0.01 0.03 0.03 0.04 0.03 0.01 0.00 0.00 0.00 0.00 0.00 0.00 0.00 0.00 0.00 0.00 0.00 0.00 0.00 0.00 0.00 0.00 0.00 0.00 0.00 0.03 0.06 0.06 0.03 0.00 0.03 0.08 0.13 0.20 0.18 0.26 0.31 0.27 0.27 0.24
0.00 0.00 0.00 0.00 0.00 0.00 0.00 0.00 0.00 0.02 0.07 0.12 0.12 0.07 0.01 0.00 0.00 0.00 0.00 0.00 0.00 0.00 0.00 0.00 0.00 0.00 0.00 0.00 0.00 0.00 0.00 0.00 0.00 0.00 0.00 0.02 0.02 0.01 0.02 0.08 0.13 0.15 0.15 0.24 0.21 0.29 0.26 0.15 0.10
0.00 0.00 0.00 0.00 0.00 0.00 0.00 0.00 0.01 0.01 0.04 0.17 0.24 0.17 0.03 0.00 0.00 0.00 0.00 0.00 0.00 0.00 0.00 0.00 0.00 0.00 0.00 0.00 0.00 0.00 0.00 0.00 0.00 0.00 0.00 0.00 0.02 0.04 0.08 0.07 0.10 0.05 0.10 0.16 0.15 0.11 0.16 0.19 0.10
0.00 0.00 0.00 0.00 0.00 0.00 0.00 0.00 0.00 0.02 0.03 0.13 0.22 0.20 0.06 0.01 0.00 0.00 0.00 0.00 0.00 0.00 0.00 0.00 0.00 0.00 0.00 0.00 0.00 0.00 0.00 0.00 0.00 0.00 0.00 0.00 0.03 0.09 0.15 0.14 0.14 0.11 0.13 0.19 0.21 0.18 0.33 0.25 0.16
0.00 0.00 0.00 0.00 0.00 0.00 0.00 0.00 0.01 0.03 0.02 0.08 0.17 0.17 0.07 0.02 0.01 0.00 0.00 0.00 0.00 0.00 0.00 0.01 0.02 0.00 0.00 0.00 0.00 0.01 0.02 0.01 0.01 0.01 0.01 0.03 0.05 0.13 0.21 0.25 0.23 0.25 0.23 0.29 0.30 0.34 0.40 0.24 0.21
0.00 0.00 0.00 0.00 0.00 0.00 0.00 0.00 0.00 0.00 0.01 0.03 0.11 0.20 0.15 0.12 0.12 0.07 0.02 0.01 0.01 0.00 0.01 0.03 0.06 0.02 0.01 0.02 0.02 0.04 0.05 0.04 0.04 0.06 0.07 0.11 0.16 0.22 0.33 0.35 0.30 0.40 0.43 0.43 0.46 0.48 0.44 0.37 0.29
0.00 0.00 0.00 0.00 0.00 0.00 0.00 0.00 0.00 0.01 0.02 0.05 0.10 0.20 0.30 0.36 0.42 0.36 0.19 0.09 0.05 0.03 0.03 0.04 0.05 0.05 0.08 0.10 0.09 0.12 0.15 0.13 0.14 0.19 0.21 0.27 0.31 0.35 0.45 0.42 0.47 0.51 0.50 0.51 0.38 0.48 0.47 0.47 0.41
0.00 0.00 0.00 0.00 0.00 0.00 0.00 0.00 0.00 0.00 0.02 0.07 0.18 0.34 0.49 0.72 0.90 0.71 0.42 0.19 0.12 0.11 0.11 0.16 0.20 0.21 0.25 0.26 0.23 0.26 0.28 0.26 0.30 0.36 0.44 0.49 0.48 0.49 0.57 0.54 0.56 0.55 0.57 0.56 0.54 0.55 0.57 0.55 0.51
0.00 0.00 0.00 0.00 0.00 0.00 0.00 0.00 0.00 0.00 0.01 0.04 0.11 0.32 0.56 0.59 0.68 0.59 0.36 0.25 0.24 0.35 0.39 0.47 0.55 0.54 0.56 0.56 0.55 0.60 0.61 0.61 0.62 0.58 0.55 0.55 0.52 0.54 0.63 0.55 0.60 0.53 0.49 0.54 0.57 0.62 0.57 0.57 0.64
0.00 0.00 0.00 0.00 0.00 0.00 0.00 0.00 0.00 0.01 0.01 0.02 0.04 0.10 0.23 0.33 0.37 0.39 0.34 0.34 0.51 0.71 0.74 0.78 0.78 0.78 0.88 1.00 1.10 1.18 1.23 1.08 0.94 0.86 0.77 0.69 0.65 0.64 0.62 0.60 0.55 0.51 0.55 0.63 0.66 0.76 0.69 0.53 0.59
0.00 0.00 0.00 0.00 0.00 0.00 0.00 0.00 0.00 0.01 0.02 0.06 0.10 0.16 0.22 0.30 0.37 0.43 0.45 0.49 0.58 0.66 0.74 0.87 0.94 0.99 1.09 1.24 1.35 1.38 1.38 1.24 1.14 1.03 0.94 0.81 0.71 0.64 0.62 0.60 0.58 0.64 0.67 0.70 0.71 0.73 0.73 0.60 0.59
0.00 0.00 0.00 0.00 0.00 0.00 0.00 0.00 0.00 0.00 0.03 0.06 0.12 0.20 0.27 0.32 0.36 0.45 0.51 0.52 0.55 0.59 0.70 0.88 1.00 1.05 1.14 1.25 1.32 1.30 1.29 1.17 1.14 1.14 1.04 0.92 0.79 0.72 0.65 0.60 0.57 0.56 0.59 0.62 0.56 0.64 0.77 0.73 0.61
0.00 0.00 0.00 0.00 0.00 0.00 0.00 0.00 0.00 0.00 0.01 0.05 0.13 0.22 0.33 0.38 0.38 0.40 0.47 0.49 0.50 0.58 0.70 0.80 0.89 0.94 0.98 1.00 1.04 1.07 1.06 1.06 1.06 1.00 0.91 0.82 0.74 0.70 0.63 0.55 0.51 0.47 0.47 0.55 0.59 0.66 0.70 0.73 0.69
0.00 0.00 0.00 0.00 0.00 0.00 0.00 0.00 0.00 0.00 0.01 0.06 0.20 0.31 0.44 0.52 0.53 0.54 0.55 0.56 0.57 0.66 0.76 0.81 0.82 0.80 0.78 0.76 0.79 0.83 0.85 0.89 0.89 0.86 0.84 0.80 0.75 0.68 0.63 0.60 0.55 0.50 0.52 0.59 0.62 0.63 0.61 0.65 0.68
0.00 0.01 0.06 0.03 0.01 0.01 0.01 0.01 0.01 0.02 0.02 0.07 0.24 0.44 0.56 0.55 0.52 0.51 0.52 0.55 0.58 0.58 0.58 0.61 0.58 0.54 0.50 0.48 0.50 0.53 0.56 0.60 0.65 0.68 0.67 0.61 0.54 0.51 0.49 0.46 0.50 0.50 0.54 0.55 0.53 0.59 0.63 0.68 0.69
0.02 0.05 0.20 0.18 0.05 0.02 0.02 0.01 0.07 0.09 0.12 0.24 0.38 0.49 0.51 0.46 0.43 0.41 0.39 0.38 0.40 0.40 0.39 0.42 0.43 0.46 0.45 0.41 0.39 0.34 0.31 0.33 0.35 0.40 0.45 0.44 0.40 0.38 0.38 0.41 0.48 0.50 0.52 0.51 0.53 0.53 0.55 0.61 0.64
0.05 0.09 0.11 0.24 0.18 0.12 0.02 0.02 0.09 0.15 0.29 0.52 0.68 0.68 0.60 0.46 0.38 0.33 0.29 0.26 0.25 0.27 0.31 0.36 0.40 0.43 0.47 0.46 0.39 0.33 0.27 0.24 0.25 0.28 0.35 0.38 0.39 0.35 0.36 0.39 0.45 0.53 0.60 0.61 0.60 0.59 0.60 0.67 0.70
0.03 0.05 0.07 0.20 0.21 0.19 0.06 0.04 0.13 0.35 0.49 0.61 0.71 0.65 0.49 0.37 0.29 0.24 0.21 0.19 0.18 0.20 0.25 0.32 0.37 0.37 0.38 0.39 0.36 0.29 0.24 0.23 0.24 0.25 0.27 0.28 0.29 0.30 0.34 0.39 0.44 0.44 0.44 0.45 0.46 0.54 0.59 0.63 0.65
0.05 0.08 0.15 0.23 0.22 0.25 0.21 0.17 0.22 0.36 0.51 0.60 0.61 0.50 0.35 0.26 0.19 0.17 0.17 0.18 0.18 0.17 0.22 0.29 0.36 0.39 0.40 0.40 0.39 0.32 0.26 0.23 0.22 0.21 0.20 0.24 0.25 0.27 0.31 0.35 0.32 0.29 0.25 0.23 0.25 0.31 0.36 0.39 0.38
0.03 0.07 0.16 0.26 0.24 0.24 0.26 0.19 0.13 0.16 0.24 0.32 0.34 0.30 0.25 0.20 0.18 0.20 0.22 0.22 0.20 0.21 0.26 0.32 0.37 0.42 0.46 0.48 0.49 0.45 0.38 0.33 0.29 0.24 0.20 0.17 0.18 0.21 0.23 0.24 0.23 0.19 0.17 0.18 0.19 0.20 0.23 0.24 0.21

GEFSSGP_prec_meanprecacc_036.txt.gz
Total_Precipitation_Accumulation
0.00 0.01 0.06 0.09 0.06 0.09 0.20 0.24 0.06 0.01 0.00 0.00 0.00 0.00 0.00 0.00 0.01 0.03 0.00 0.00 0.00 0.00 0.00 0.00 0.00 0.01 0.03 0.05 0.05 0.06 0.05 0.02 0.01 0.01 0.03 0.06 0.03 0.01 0.00 0.00 0.00 0.00 0.00 0.00 0.01 0.01 0.01 0.00 0.00
0.00 0.01 0.04 0.05 0.06 0.10 0.20 0.27 0.08 0.03 0.01 0.00 0.00 0.00 0.00 0.00 0.00 0.00 0.00 0.00 0.00 0.00 0.00 0.00 0.00 0.01 0.02 0.03 0.05 0.07 0.06 0.03 0.02 0.04 0.06 0.07 0.04 0.01 0.00 0.00 0.00 0.00 0.00 0.00 0.00 0.01 0.00 0.00 0.00
0.00 0.00 0.02 0.03 0.11 0.12 0.12 0.15 0.03 0.01 0.00 0.00 0.00 0.00 0.00 0.00 0.00 0.00 0.00 0.00 0.00 0.00 0.00 0.01 0.01 0.01 0.02 0.02 0.03 0.07 0.09 0.06 0.05 0.08 0.09 0.07 0.06 0.04 0.02 0.02 0.02 0.02 0.00 0.00 0.00 0.01 0.01 0.00 0.00
0.00 0.00 0.00 0.01 0.09 0.11 0.08 0.06 0.04 0.02 0.00 0.00 0.00 0.00 0.00 0.00 0.00 0.00 0.00 0.00 0.00 0.00 0.00 0.00 0.02 0.02 0.02 0.02 0.02 0.04 0.09 0.08 0.06 0.08 0.11 0.09 0.11 0.12 0.07 0.03 0.04 0.05 0.02 0.01 0.01 0.00 0.00 0.01 0.01
0.00 0.00 0.00 0.01 0.05 0.10 0.09 0.06 0.04 0.02 0.00 0.00 0.00 0.00 0.00 0.00 0.00 0.00 0.00 0.00 0.00 0.00 0.00 0.00 0.02 0.02 0.01 0.02 0.03 0.03 0.05 0.06 0.04 0.05 0.05 0.04 0.08 0.15 0.11 0.07 0.05 0.05 0.03 0.02 0.01 0.01 0.01 0.01 0.01
0.00 0.00 0.00 0.01 0.02 0.05 0.07 0.05 0.04 0.03 0.01 0.00 0.00 0.00 0.00 0.00 0.00 0.00 0.00 0.00 0.00 0.00 0.00 0.00 0.01 0.01 0.01 0.00 0.02 0.04 0.04 0.02 0.01 0.01 0.00 0.01 0.02 0.03 0.06 0.07 0.06 0.04 0.02 0.02 0.01 0.01 0.01 0.01 0.02
0.00 0.00 0.00 0.00 0.01 0.01 0.02 0.02 0.02 0.02 0.01 0.01 0.00 0.01 0.01 0.00 0.00 0.00 0.00 0.00 0.00 0.00 0.00 0.00 0.00 0.01 0.00 0.00 0.01 0.02 0.02 0.02 0.01 0.00 0.00 0.01 0.01 0.02 0.04 0.05 0.05 0.05 0.04 0.03 0.02 0.02 0.02 0.02 0.02
0.00 0.00 0.00 0.00 0.00 0.00 0.00 0.01 0.01 0.01 0.01 0.01 0.00 0.01 0.01 0.00 0.00 0.00 0.00 0.00 0.00 0.00 0.00 0.00 0.00 0.01 0.01 0.01 0.01 0.02 0.02 0.01 0.01 0.00 0.00 0.00 0.01 0.01 0.03 0.03 0.03 0.06 0.07 0.04 0.03 0.02 0.02 0.03 0.02
0.00 0.00 0.00 0.00 0.00 0.00 0.00 0.01 0.02 0.01 0.02 0.02 0.00 0.01 0.01 0.00 0.00 0.00 0.00 0.00 0.00 0.00 0.00 0.00 0.00 0.01 0.01 0.01 0.00 0.01 0.01 0.01 0.01 0.02 0.02 0.02 0.01 0.04 0.07 0.05 0.05 0.06 0.07 0.07 0.06 0.07 0.07 0.06 0.03
0.00 0.00 0.00 0.00 0.00 0.00 0.00 0.01 0.01 0.01 0.02 0.01 0.01 0.02 0.01 0.00 0.00 0.00 0.00 0.00 0.00 0.00 0.00 0.00 0.00 0.00 0.01 0.00 0.00 0.00 0.00 0.00 0.00 0.01 0.04 0.07 0.10 0.10 0.05 0.06 0.09 0.15 0.20 0.16 0.14 0.16 0.11 0.10 0.08
0.00 0.00 0.00 0.00 0.00 0.00 0.00 0.00 0.00 0.01 0.03 0.04 0.05 0.07 0.03 0.01 0.00 0.00 0.00 0.00 0.00 0.00 0.00 0.00 0.00 0.00 0.00 0.00 0.00 0.00 0.00 0.00 0.00 0.00 0.03 0.06 0.06 0.03 0.00 0.03 0.08 0.13 0.20 0.18 0.26 0.31 0.27 0.27 0.24
0.00 0.00 0.00 0.00 0.00 0.00 0.00 0.00 0.00 0.02 0.07 0.12 0.13 0.13 0.07 0.02 0.01 0.00 0.00 0.00 0.00 0.00 0.00 0.00 0.00 0.00 0.00 0.00 0.00 0.00 0.00 0.00 0.00 0.00 0.00 0.02 0.02 0.01 0.02 0.08 0.13 0.15 0.16 0.24 0.22 0.29 0.27 0.16 0.11
0.00 0.00 0.00 0.00 0.00 0.00 0.00 0.00 0.01 0.01 0.04 0.17 0.24 0.17 0.04 0.03 0.02 0.01 0.01 0.01 0.00 0.00 0.00 0.00 0.01 0.01 0.01 0.00 0.00 0.00 0.00 0.00 0.00 0.00 0.00 0.00 0.02 0.04 0.08 0.08 0.10 0.05 0.11 0.17 0.16 0.12 0.18 0.21 0.12
0.00 0.00 0.00 0.00 0.00 0.00 0.00 0.00 0.00 0.02 0.03 0.13 0.22 0.20 0.06 0.02 0.02 0.05 0.10 0.07 0.03 0.02 0.02 0.01 0.01 0.01 0.01 0.01 0.00 0.00 0.01 0.00 0.00 0.00 0.00 0.01 0.03 0.09 0.15 0.14 0.14 0.11 0.13 0.20 0.22 0.20 0.36 0.28 0.20
0.00 0.00 0.00 0.00 0.00 0.00 0.00 0.00 0.01 0.03 0.02 0.08 0.17 0.17 0.08 0.03 0.03 0.04 0.06 0.11 0.16 0.18 0.11 0.05 0.05 0.04 0.03 0.02 0.02 0.02 0.03 0.02 0.01 0.01 0.02 0.04 0.06 0.14 0.22 0.27 0.25 0.27 0.25 0.31 0.33 0.38 0.44 0.28 0.26
0.00 0.00 0.00 0.00 0.00 0.00 0.00 0.00 0.00 0.00 0.01 0.03 0.11 0.20 0.16 0.13 0.14 0.13 0.14 0.22 0.26 0.21 0.16 0.17 0.21 0.17 0.10 0.09 0.08 0.08 0.08 0.07 0.07 0.08 0.10 0.14 0.19 0.27 0.38 0.40 0.35 0.46 0.49 0.48 0.52 0.55 0.50 0.43 0.35
0.00 0.00 0.00 0.00 0.00 0.00 0.00 0.00 0.00 0.01 0.02 0.05 0.10 0.21 0.31 0.37 0.46 0.45 0.33 0.25 0.25 0.26 0.31 0.36 0.38 0.35 0.32 0.30 0.23 0.22 0.24 0.19 0.19 0.24 0.28 0.34 0.41 0.47 0.57 0.53 0.59 0.66 0.64 0.65 0.53 0.61 0.58 0.56 0.51
0.00 0.00 0.00 0.00 0.00 0.00 0.00 0.00 0.00 0.00 0.02 0.07 0.18 0.34 0.50 0.73 0.92 0.77 0.57 0.39 0.31 0.32 0.36 0.38 0.42 0.54 0.70 0.71 0.62 0.57 0.46 0.39 0.40 0.46 0.54 0.61 0.64 0.70 0.80 0.77 0.82 0.84 0.86 0.82 0.78 0.75 0.72 0.67 0.63
0.00 0.00 0.00 0.00 0.00 0.00 0.00 0.00 0.00 0.00 0.01 0.04 0.11 0.32 0.56 0.61 0.70 0.65 0.45 0.38 0.40 0.52 0.57 0.66 0.82 0.91 1.00 0.96 0.84 0.81 0.78 0.79 0.77 0.73 0.69 0.71 0.71 0.79 0.94 0.91 1.00 0.95 0.87 0.89 0.90 0.88 0.77 0.73 0.81
0.00 0.00 0.00 0.00 0.00 0.00 0.00 0.00 0.00 0.01 0.01 0.02 0.04 0.10 0.23 0.35 0.40 0.42 0.38 0.42 0.62 0.80 0.83 0.88 0.90 0.93 1.06 1.22 1.29 1.33 1.40 1.22 1.07 1.00 0.90 0.85 0.88 0.92 0.95 0.98 0.95 0.92 0.95 0.98 0.94 1.01 0.88 0.66 0.74
0.00 0.00 0.00 0.00 0.00 0.00 0.00 0.00 0.00 0.01 0.03 0.06 0.11 0.17 0.24 0.33 0.42 0.49 0.49 0.51 0.60 0.68 0.77 0.90 0.98 1.03 1.15 1.32 1.46 1.50 1.53 1.36 1.25 1.15 1.06 0.95 0.94 0.92 0.94 0.95 1.02 1.13 1.14 1.04 0.99 0.98 0.92 0.73 0.70
0.00 0.00 0.00 0.00 0.00 0.00 0.00 0.00 0.00 0.00 0.03 0.08 0.14 0.23 0.31 0.39 0.44 0.49 0.52 0.53 0.56 0.59 0.70 0.88 1.01 1.06 1.16 1.29 1.37 1.36 1.36 1.25 1.24 1.26 1.14 1.05 0.97 0.94 0.93 0.94 0.96 0.94 0.93 0.89 0.80 0.85 0.94 0.87 0.74
0.00 0.00 0.00 0.00 0.00 0.00 0.00 0.00 0.00 0.00 0.02 0.07 0.17 0.26 0.37 0.44 0.42 0.41 0.47 0.49 0.50 0.58 0.70 0.80 0.89 0.94 0.98 1.01 1.05 1.08 1.08 1.09 1.11 1.05 0.97 0.90 0.86 0.85 0.84 0.80 0.78 0.71 0.71 0.78 0.79 0.82 0.84 0.85 0.79
0.00 0.00 0.00 0.00 0.00 0.00 0.01 0.01 0.01 0.02 0.03 0.08 0.22 0.34 0.46 0.53 0.53 0.54 0.55 0.56 0.57 0.66 0.76 0.81 0.82 0.80 0.78 0.76 0.79 0.83 0.86 0.89 0.90 0.88 0.88 0.84 0.81 0.74 0.71 0.72 0.71 0.67 0.69 0.76 0.78 0.78 0.73 0.76 0.77
0.00 0.01 0.06 0.04 0.01 0.01 0.02 0.03 0.04 0.06 0.04 0.09 0.26 0.45 0.57 0.55 0.52 0.51 0.52 0.55 0.58 0.58 0.58 0.61 0.58 0.54 0.50 0.48 0.50 0.53 0.56 0.60 0.65 0.68 0.68 0.63 0.58 0.55 0.54 0.54 0.61 0.63 0.69 0.70 0.67 0.71 0.75 0.79 0.80
0.02 0.05 0.20 0.18 0.05 0.02 0.02 0.02 0.09 0.11 0.14 0.26 0.40 0.50 0.51 0.46 0.43 0.41 0.39 0.38 0.40 0.40 0.39 0.42 0.43 0.46 0.45 0.41 0.39 0.34 0.32 0.33 0.36 0.40 0.46 0.45 0.43 0.42 0.44 0.50 0.60 0.65 0.69 0.68 0.69 0.67 0.69 0.76 0.79
0.05 0.09 0.11 0.24 0.18 0.12 0.02 0.02 0.10 0.16 0.30 0.53 0.68 0.68 0.60 0.46 0.38 0.33 0.29 0.26 0.25 0.27 0.31 0.36 0.40 0.43 0.47 0.46 0.39 0.33 0.27 0.25 0.25 0.29 0.36 0.39 0.41 0.38 0.40 0.46 0.55 0.68 0.78 0.80 0.77 0.75 0.79 0.89 0.93
0.04 0.05 0.07 0.20 0.21 0.19 0.06 0.04 0.14 0.36 0.50 0.61 0.72 0.65 0.49 0.37 0.29 0.24 0.21 0.19 0.19 0.20 0.25 0.32 0.37 0.37 0.38 0.39 0.36 0.29 0.25 0.23 0.24 0.25 0.28 0.29 0.32 0.34 0.39 0.46 0.53 0.58 0.64 0.67 0.66 0.73 0.80 0.86 0.87
0.06 0.09 0.15 0.23 0.22 0.25 0.21 0.17 0.23 0.36 0.52 0.60 0.61 0.50 0.35 0.26 0.19 0.17 0.17 0.18 0.18 0.17 0.22 0.29 0.36 0.39 0.41 0.40 0.39 0.32 0.26 0.23 0.22 0.21 0.22 0.26 0.29 0.32 0.37 0.42 0.42 0.42 0.43 0.44 0.46 0.55 0.64 0.65 0.59
0.03 0.07 0.16 0.27 0.24 0.24 0.26 0.19 0.13 0.17 0.25 0.32 0.34 0.30 0.25 0.20 0.18 0.20 0.22 0.22 0.20 0.21 0.26 0.32 0.37 0.42 0.46 0.48 0.50 0.45 0.38 0.34 0.30 0.25 0.22 0.21 0.23 0.26 0.30 0.32 0.32 0.31 0.32 0.36 0.40 0.47 0.50 0.50 0.46

GEFSSGP_prec_meanprecacc_042.txt.gz
Total_Precipitation_Accumulation
0.01 0.04 0.10 0.10 0.06 0.09 0.20 0.24 0.06 0.01 0.00 0.00 0.00 0.00 0.00 0.00 0.01 0.03 0.00 0.00 0.00 0.00 0.00 0.00 0.00 0.01 0.03 0.05 0.05 0.06 0.05 0.02 0.01 0.01 0.03 0.06 0.03 0.01 0.00 0.00 0.00 0.00 0.00 0.00 0.01 0.01 0.01 0.00 0.00
0.00 0.03 0.07 0.07 0.07 0.10 0.21 0.27 0.08 0.03 0.01 0.00 0.00 0.00 0.00 0.00 0.00 0.00 0.00 0.00 0.00 0.00 0.00 0.00 0.00 0.01 0.02 0.03 0.05 0.07 0.06 0.03 0.02 0.04 0.06 0.07 0.04 0.01 0.00 0.00 0.00 0.00 0.00 0.00 0.00 0.01 0.00 0.00 0.00
0.00 0.01 0.04 0.04 0.12 0.13 0.12 0.15 0.03 0.01 0.00 0.00 0.00 0.00 0.00 0.00 0.00 0.00 0.00 0.00 0.00 0.00 0.00 0.01 0.01 0.01 0.02 0.02 0.03 0.07 0.09 0.06 0.05 0.08 0.09 0.07 0.06 0.04 0.02 0.02 0.02 0.02 0.00 0.00 0.00 0.01 0.01 0.00 0.00
0.00 0.00 0.01 0.02 0.10 0.12 0.08 0.06 0.04 0.02 0.00 0.00 0.00 0.00 0.00 0.00 0.00 0.00 0.00 0.00 0.00 0.00 0.00 0.00 0.02 0.02 0.02 0.02 0.02 0.04 0.09 0.08 0.06 0.08 0.11 0.09 0.11 0.12 0.07 0.03 0.04 0.05 0.02 0.01 0.01 0.00 0.00 0.01 0.01
0.00 0.00 0.00 0.01 0.06 0.11 0.10 0.06 0.04 0.02 0.00 0.00 0.00 0.00 0.00 0.00 0.00 0.00 0.00 0.00 0.00 0.00 0.00 0.00 0.02 0.02 0.01 0.02 0.03 0.03 0.05 0.06 0.04 0.05 0.05 0.05 0.08 0.15 0.11 0.07 0.05 0.05 0.03 0.02 0.01 0.01 0.01 0.01 0.01
0.00 0.00 0.00 0.01 0.03 0.06 0.07 0.05 0.04 0.04 0.01 0.00 0.00 0.00 0.00 0.00 0.00 0.00 0.00 0.00 0.00 0.00 0.00 0.00 0.01 0.01 0.01 0.00 0.02 0.04 0.04 0.02 0.01 0.01 0.01 0.01 0.02 0.03 0.06 0.07 0.06 0.04 0.02 0.02 0.01 0.01 0.01 0.01 0.02
0.00 0.00 0.00 0.00 0.01 0.01 0.03 0.03 0.02 0.02 0.01 0.01 0.00 0.01 0.01 0.00 0.00 0.00 0.00 0.00 0.00 0.00 0.00 0.00 0.00 0.01 0.00 0.00 0.01 0.02 0.02 0.02 0.01 0.00 0.00 0.01 0.01 0.02 0.05 0.05 0.05 0.05 0.04 0.03 0.02 0.02 0.02 0.02 0.02
0.00 0.00 0.00 0.00 0.00 0.00 0.00 0.01 0.01 0.01 0.01 0.01 0.00 0.01 0.01 0.00 0.00 0.00 0.00 0.00 0.00 0.00 0.00 0.00 0.00 0.01 0.01 0.01 0.01 0.02 0.02 0.01 0.01 0.00 0.00 0.00 0.01 0.02 0.03 0.03 0.03 0.06 0.07 0.04 0.03 0.02 0.02 0.03 0.02
0.00 0.00 0.00 0.00 0.00 0.00 0.00 0.01 0.02 0.01 0.02 0.02 0.00 0.01 0.01 0.00 0.00 0.00 0.00 0.00 0.00 0.00 0.00 0.00 0.00 0.01 0.01 0.01 0.00 0.01 0.01 0.01 0.01 0.02 0.02 0.02 0.01 0.04 0.07 0.05 0.05 0.06 0.07 0.07 0.06 0.07 0.07 0.06 0.03
0.00 0.00 0.00 0.00 0.00 0.00 0.00 0.01 0.01 0.01 0.02 0.01 0.01 0.02 0.01 0.00 0.00 0.00 0.00 0.00 0.00 0.00 0.00 0.00 0.00 0.00 0.01 0.00 0.00 0.00 0.00 0.00 0.00 0.01 0.05 0.07 0.10 0.10 0.05 0.06 0.09 0.15 0.20 0.16 0.14 0.16 0.12 0.10 0.08
0.00 0.00 0.00 0.00 0.00 0.00 0.00 0.00 0.00 0.01 0.03 0.04 0.05 0.07 0.03 0.01 0.00 0.00 0.00 0.00 0.00 0.00 0.00 0.00 0.00 0.00 0.00 0.00 0.00 0.00 0.00 0.00 0.00 0.00 0.03 0.06 0.06 0.03 0.00 0.03 0.08 0.13 0.20 0.18 0.27 0.33 0.28 0.28 0.25
0.00 0.00 0.00 0.00 0.00 0.00 0.00 0.00 0.00 0.02 0.07 0.12 0.13 0.13 0.07 0.02 0.01 0.00 0.00 0.00 0.00 0.01 0.01 0.00 0.01 0.01 0.00 0.00 0.00 0.00 0.00 0.00 0.00 0.00 0.00 0.02 0.02 0.01 0.02 0.08 0.13 0.15 0.16 0.25 0.24 0.32 0.30 0.20 0.15
0.00 0.00 0.00 0.00 0.00 0.00 0.00 0.00 0.01 0.01 0.04 0.17 0.24 0.17 0.04 0.03 0.02 0.01 0.01 0.01 0.01 0.02 0.02 0.02 0.02 0.03 0.02 0.02 0.01 0.01 0.00 0.00 0.00 0.01 0.01 0.01 0.02 0.05 0.08 0.08 0.11 0.06 0.12 0.19 0.21 0.19 0.25 0.28 0.22
0.00 0.00 0.00 0.00 0.00 0.00 0.00 0.00 0.00 0.02 0.03 0.13 0.22 0.20 0.06 0.03 0.02 0.06 0.10 0.08 0.04 0.04 0.04 0.05 0.06 0.07 0.07 0.07 0.06 0.04 0.03 0.03 0.02 0.02 0.03 0.03 0.05 0.12 0.19 0.19 0.20 0.19 0.22 0.30 0.34 0.33 0.51 0.44 0.36
0.00 0.00 0.00 0.00 0.00 0.00 0.00 0.00 0.01 0.03 0.02 0.08 0.17 0.17 0.08 0.03 0.03 0.04 0.07 0.13 0.18 0.20 0.14 0.12 0.12 0.13 0.17 0.16 0.13 0.14 0.15 0.10 0.08 0.09 0.10 0.12 0.15 0.25 0.35 0.40 0.41 0.46 0.46 0.53 0.57 0.61 0.69 0.52 0.48
0.00 0.00 0.00 0.00 0.00 0.00 0.00 0.00 0.00 0.00 0.01 0.03 0.11 0.20 0.16 0.13 0.15 0.14 0.16 0.24 0.28 0.23 0.20 0.24 0.31 0.30 0.29 0.28 0.31 0.34 0.30 0.24 0.23 0.23 0.23 0.27 0.34 0.45 0.59 0.62 0.61 0.77 0.83 0.85 0.92 0.95 0.88 0.75 0.63
0.00 0.00 0.00 0.00 0.00 0.00 0.00 0.00 0.00 0.01 0.02 0.05 0.10 0.21 0.31 0.38 0.46 0.46 0.36 0.28 0.29 0.30 0.37 0.45 0.48 0.45 0.44 0.48 0.51 0.55 0.57 0.48 0.44 0.45 0.43 0.50 0.60 0.71 0.83 0.77 0.85 1.04 1.10 1.15 1.06 1.11 1.03 0.95 0.85
0.00 0.00 0.00 0.00 0.00 0.00 0.00 0.00 0.00 0.01 0.03 0.07 0.18 0.35 0.51 0.74 0.94 0.81 0.61 0.43 0.35 0.36 0.42 0.44 0.49 0.60 0.79 0.86 0.82 0.82 0.73 0.63 0.61 0.66 0.72 0.80 0.85 0.96 1.10 1.00 1.08 1.24 1.32 1.27 1.28 1.28 1.25 1.13 1.05
0.00 0.00 0.00 0.00 0.00 0.00 0.00 0.00 0.01 0.01 0.03 0.05 0.12 0.34 0.58 0.63 0.74 0.69 0.49 0.43 0.43 0.55 0.60 0.69 0.86 0.95 1.06 1.03 0.90 0.90 0.87 0.90 0.90 0.89 0.87 0.89 0.90 1.00 1.19 1.14 1.24 1.26 1.22 1.25 1.36 1.43 1.27 1.12 1.19
0.00 0.00 0.00 0.00 0.00 0.00 0.00 0.00 0.01 0.01 0.02 0.03 0.06 0.12 0.25 0.37 0.43 0.46 0.42 0.44 0.63 0.81 0.84 0.89 0.92 0.96 1.09 1.26 1.33 1.38 1.44 1.27 1.13 1.08 1.00 0.97 1.04 1.11 1.13 1.15 1.15 1.15 1.23 1.28 1.33 1.48 1.29 0.99 1.08
0.00 0.00 0.00 0.00 0.00 0.00 0.00 0.00 0.00 0.01 0.03 0.08 0.12 0.19 0.27 0.36 0.46 0.52 0.51 0.52 0.60 0.68 0.77 0.90 0.98 1.04 1.16 1.34 1.48 1.52 1.55 1.38 1.27 1.18 1.11 1.02 1.04 1.03 1.05 1.06 1.16 1.32 1.39 1.29 1.28 1.33 1.24 0.99 0.94
0.00 0.00 0.00 0.00 0.00 0.00 0.00 0.00 0.00 0.01 0.04 0.09 0.16 0.25 0.34 0.42 0.47 0.52 0.54 0.54 0.56 0.59 0.70 0.88 1.01 1.06 1.16 1.29 1.37 1.37 1.37 1.25 1.24 1.27 1.16 1.07 1.01 0.98 0.98 1.01 1.05 1.08 1.10 1.07 1.00 1.08 1.16 1.08 0.92
0.00 0.00 0.00 0.00 0.00 0.00 0.00 0.00 0.00 0.01 0.02 0.08 0.18 0.28 0.40 0.46 0.44 0.42 0.48 0.50 0.50 0.58 0.70 0.80 0.89 0.94 0.98 1.01 1.05 1.08 1.08 1.09 1.11 1.05 0.97 0.90 0.86 0.86 0.86 0.83 0.82 0.77 0.79 0.86 0.90 0.95 0.99 1.00 0.94
0.00 0.00 0.00 0.00 0.00 0.00 0.01 0.01 0.01 0.02 0.03 0.08 0.23 0.35 0.47 0.54 0.54 0.54 0.55 0.56 0.57 0.66 0.76 0.81 0.82 0.80 0.78 0.76 0.79 0.83 0.86 0.89 0.90 0.88 0.88 0.84 0.81 0.74 0.71 0.72 0.72 0.69 0.72 0.80 0.84 0.86 0.82 0.85 0.88
0.00 0.01 0.06 0.04 0.01 0.01 0.02 0.03 0.04 0.06 0.04 0.09 0.26 0.46 0.57 0.56 0.52 0.51 0.52 0.55 0.58 0.58 0.58 0.61 0.59 0.54 0.50 0.48 0.50 0.53 0.56 0.60 0.65 0.68 0.68 0.63 0.58 0.55 0.55 0.55 0.62 0.64 0.71 0.72 0.71 0.76 0.80 0.85 0.86
0.02 0.05 0.20 0.18 0.05 0.02 0.02 0.02 0.09 0.11 0.14 0.26 0.40 0.50 0.52 0.46 0.43 0.41 0.39 0.38 0.40 0.40 0.39 0.42 0.44 0.46 0.45 0.41 0.39 0.35 0.32 0.33 0.36 0.40 0.46 0.45 0.43 0.42 0.44 0.51 0.60 0.66 0.70 0.70 0.72 0.71 0.73 0.80 0.84
0.05 0.09 0.11 0.24 0.18 0.12 0.02 0.02 0.10 0.16 0.30 0.53 0.68 0.68 0.60 0.47 0.38 0.33 0.29 0.26 0.25 0.27 0.31 0.36 0.40 0.43 0.47 0.46 0.40 0.33 0.27 0.25 0.25 0.29 0.36 0.39 0.41 0.38 0.40 0.46 0.56 0.69 0.79 0.82 0.80 0.79 0.82 0.93 0.98
0.04 0.06 0.07 0.20 0.21 0.19 0.06 0.04 0.14 0.36 0.50 0.61 0.72 0.65 0.49 0.37 0.29 0.25 0.21 0.19 0.19 0.20 0.25 0.32 0.37 0.37 0.38 0.39 0.36 0.29 0.25 0.23 0.24 0.25 0.28 0.30 0.32 0.34 0.39 0.46 0.54 0.59 0.66 0.70 0.69 0.77 0.85 0.93 0.94
0.06 0.10 0.16 0.24 0.23 0.26 0.21 0.17 0.23 0.36 0.52 0.61 0.61 0.50 0.35 0.26 0.19 0.17 0.17 0.18 0.18 0.17 0.22 0.29 0.36 0.39 0.41 0.40 0.39 0.32 0.26 0.23 0.22 0.21 0.22 0.26 0.29 0.32 0.37 0.43 0.43 0.44 0.45 0.48 0.51 0.61 0.73 0.77 0.72
0.04 0.08 0.17 0.27 0.24 0.24 0.26 0.19 0.13 0.17 0.25 0.32 0.34 0.30 0.25 0.20 0.18 0.20 0.22 0.22 0.20 0.21 0.26 0.32 0.37 0.42 0.46 0.48 0.50 0.45 0.38 0.34 0.30 0.25 0.22 0.21 0.23 0.27 0.30 0.32 0.33 0.33 0.36 0.41 0.47 0.55 0.61 0.64 0.59

GEFSSGP_prec_meanprecacc_048.txt.gz
Total_Precipitation_Accumulation
0.01 0.05 0.10 0.10 0.06 0.09 0.20 0.24 0.06 0.01 0.00 0.00 0.00 0.00 0.00 0.00 0.01 0.03 0.00 0.00 0.00 0.00 0.00 0.00 0.01 0.01 0.03 0.05 0.05 0.06 0.05 0.02 0.01 0.01 0.03 0.06 0.03 0.01 0.00 0.00 0.00 0.00 0.00 0.00 0.01 0.01 0.01 0.00 0.00
0.01 0.04 0.07 0.07 0.07 0.10 0.21 0.27 0.08 0.03 0.01 0.00 0.00 0.00 0.00 0.00 0.00 0.00 0.00 0.00 0.00 0.00 0.00 0.00 0.00 0.01 0.02 0.03 0.05 0.07 0.06 0.03 0.02 0.04 0.06 0.07 0.04 0.01 0.00 0.00 0.00 0.00 0.00 0.00 0.00 0.01 0.00 0.00 0.00
0.00 0.01 0.04 0.04 0.12 0.13 0.12 0.15 0.03 0.01 0.00 0.00 0.00 0.00 0.00 0.00 0.00 0.00 0.00 0.00 0.00 0.00 0.00 0.01 0.01 0.01 0.02 0.02 0.03 0.07 0.09 0.06 0.05 0.08 0.09 0.07 0.06 0.04 0.02 0.02 0.03 0.02 0.00 0.00 0.00 0.01 0.01 0.00 0.00
0.00 0.00 0.01 0.02 0.10 0.12 0.08 0.06 0.04 0.02 0.00 0.00 0.00 0.00 0.00 0.00 0.00 0.00 0.00 0.00 0.00 0.00 0.00 0.00 0.02 0.02 0.02 0.02 0.02 0.04 0.09 0.08 0.06 0.08 0.11 0.09 0.11 0.12 0.07 0.03 0.04 0.05 0.02 0.01 0.01 0.00 0.00 0.01 0.01
0.00 0.00 0.00 0.02 0.06 0.12 0.10 0.06 0.04 0.02 0.00 0.00 0.00 0.00 0.00 0.00 0.00 0.00 0.00 0.00 0.00 0.00 0.00 0.00 0.02 0.02 0.01 0.02 0.03 0.03 0.05 0.06 0.04 0.05 0.05 0.05 0.08 0.15 0.11 0.07 0.05 0.05 0.03 0.02 0.01 0.01 0.01 0.01 0.01
0.00 0.00 0.00 0.01 0.03 0.06 0.08 0.05 0.04 0.04 0.01 0.01 0.00 0.00 0.00 0.00 0.00 0.00 0.00 0.00 0.00 0.00 0.00 0.00 0.01 0.01 0.01 0.00 0.02 0.04 0.04 0.02 0.01 0.01 0.01 0.01 0.02 0.04 0.06 0.07 0.06 0.04 0.02 0.02 0.01 0.01 0.01 0.02 0.02
0.00 0.00 0.00 0.00 0.01 0.02 0.03 0.03 0.02 0.02 0.01 0.01 0.00 0.01 0.01 0.00 0.00 0.00 0.00 0.00 0.00 0.00 0.00 0.00 0.00 0.01 0.00 0.00 0.01 0.02 0.02 0.02 0.01 0.00 0.00 0.01 0.01 0.02 0.05 0.05 0.05 0.06 0.04 0.03 0.02 0.02 0.02 0.02 0.02
0.00 0.00 0.00 0.00 0.00 0.01 0.01 0.02 0.02 0.01 0.01 0.01 0.00 0.01 0.01 0.00 0.00 0.00 0.00 0.00 0.00 0.00 0.00 0.00 0.01 0.01 0.01 0.01 0.01 0.02 0.02 0.01 0.01 0.00 0.00 0.00 0.01 0.02 0.03 0.03 0.04 0.06 0.07 0.05 0.04 0.03 0.03 0.04 0.03
0.00 0.00 0.00 0.00 0.00 0.00 0.00 0.01 0.02 0.01 0.02 0.02 0.00 0.01 0.01 0.00 0.00 0.00 0.00 0.00 0.00 0.00 0.00 0.00 0.01 0.01 0.01 0.01 0.00 0.01 0.01 0.01 0.01 0.02 0.02 0.02 0.01 0.04 0.08 0.05 0.06 0.06 0.08 0.08 0.08 0.08 0.08 0.07 0.04
0.00 0.00 0.00 0.00 0.00 0.00 0.00 0.01 0.01 0.01 0.02 0.01 0.01 0.02 0.01 0.00 0.00 0.00 0.00 0.00 0.00 0.00 0.00 0.00 0.00 0.01 0.01 0.00 0.00 0.00 0.00 0.00 0.01 0.02 0.05 0.08 0.11 0.10 0.05 0.06 0.09 0.15 0.21 0.17 0.15 0.19 0.14 0.12 0.10
0.00 0.00 0.00 0.00 0.00 0.00 0.00 0.00 0.00 0.01 0.03 0.04 0.05 0.07 0.03 0.01 0.00 0.00 0.00 0.00 0.00 0.00 0.00 0.00 0.00 0.00 0.00 0.00 0.00 0.00 0.00 0.01 0.01 0.01 0.04 0.07 0.06 0.03 0.00 0.03 0.08 0.13 0.20 0.19 0.28 0.35 0.33 0.33 0.31
0.00 0.00 0.00 0.00 0.00 0.00 0.00 0.00 0.00 0.02 0.07 0.12 0.13 0.13 0.07 0.02 0.01 0.00 0.00 0.00 0.00 0.01 0.01 0.00 0.01 0.01 0.01 0.00 0.00 0.00 0.00 0.00 0.00 0.01 0.01 0.02 0.03 0.02 0.03 0.08 0.14 0.15 0.16 0.26 0.26 0.35 0.35 0.28 0.25
0.00 0.00 0.00 0.00 0.00 0.00 0.00 0.00 0.01 0.01 0.04 0.17 0.24 0.17 0.04 0.03 0.02 0.01 0.01 0.01 0.02 0.02 0.02 0.02 0.02 0.03 0.03 0.02 0.01 0.01 0.00 0.00 0.00 0.01 0.01 0.01 0.04 0.07 0.11 0.11 0.13 0.09 0.15 0.23 0.25 0.24 0.32 0.38 0.35
0.00 0.00 0.00 0.00 0.00 0.00 0.00 0.00 0.00 0.02 0.03 0.13 0.22 0.20 0.06 0.03 0.02 0.06 0.10 0.08 0.05 0.05 0.04 0.05 0.06 0.07 0.07 0.07 0.06 0.05 0.04 0.04 0.03 0.03 0.05 0.06 0.09 0.16 0.24 0.24 0.25 0.23 0.28 0.37 0.42 0.44 0.66 0.61 0.54
0.00 0.00 0.00 0.00 0.00 0.00 0.00 0.00 0.01 0.03 0.02 0.08 0.17 0.17 0.08 0.03 0.03 0.04 0.07 0.13 0.19 0.20 0.14 0.13 0.14 0.14 0.18 0.17 0.14 0.15 0.17 0.12 0.10 0.12 0.16 0.18 0.22 0.33 0.43 0.48 0.48 0.54 0.56 0.64 0.69 0.76 0.85 0.68 0.63
0.00 0.00 0.00 0.00 0.00 0.00 0.00 0.00 0.00 0.00 0.01 0.03 0.11 0.20 0.16 0.14 0.15 0.14 0.16 0.25 0.29 0.23 0.21 0.26 0.33 0.32 0.30 0.30 0.32 0.35 0.32 0.27 0.25 0.27 0.31 0.36 0.44 0.57 0.70 0.70 0.68 0.89 0.99 1.03 1.09 1.13 1.08 0.97 0.84
0.00 0.00 0.00 0.00 0.00 0.00 0.00 0.00 0.00 0.01 0.02 0.05 0.10 0.21 0.31 0.38 0.47 0.47 0.37 0.30 0.29 0.31 0.38 0.46 0.50 0.46 0.45 0.50 0.53 0.57 0.58 0.50 0.47 0.50 0.50 0.57 0.68 0.81 0.95 0.87 0.95 1.17 1.26 1.31 1.22 1.31 1.25 1.18 1.08
0.00 0.00 0.00 0.00 0.00 0.00 0.00 0.00 0.01 0.01 0.03 0.07 0.18 0.35 0.51 0.75 0.95 0.82 0.62 0.43 0.36 0.38 0.45 0.46 0.50 0.62 0.80 0.87 0.83 0.83 0.74 0.64 0.64 0.70 0.76 0.85 0.91 1.03 1.20 1.09 1.17 1.36 1.46 1.42 1.44 1.45 1.43 1.32 1.28
0.00 0.00 0.00 0.00 0.00 0.00 0.00 0.00 0.01 0.02 0.03 0.05 0.12 0.34 0.58 0.64 0.75 0.70 0.50 0.43 0.44 0.56 0.61 0.70 0.86 0.95 1.06 1.03 0.91 0.91 0.88 0.91 0.91 0.90 0.89 0.92 0.93 1.04 1.25 1.21 1.32 1.36 1.32 1.36 1.51 1.60 1.43 1.27 1.39
0.00 0.00 0.00 0.00 0.00 0.00 0.00 0.00 0.01 0.02 0.03 0.04 0.06 0.12 0.26 0.38 0.44 0.47 0.42 0.44 0.63 0.81 0.84 0.89 0.92 0.96 1.09 1.26 1.33 1.38 1.44 1.27 1.13 1.09 1.01 0.98 1.06 1.13 1.15 1.17 1.18 1.21 1.30 1.36 1.42 1.61 1.42 1.12 1.27
0.00 0.00 0.00 0.00 0.00 0.00 0.00 0.00 0.00 0.01 0.04 0.08 0.13 0.20 0.28 0.38 0.47 0.52 0.52 0.52 0.61 0.69 0.77 0.90 0.98 1.04 1.16 1.34 1.48 1.52 1.55 1.38 1.27 1.18 1.11 1.02 1.05 1.04 1.06 1.07 1.18 1.34 1.42 1.33 1.34 1.41 1.34 1.09 1.08
0.00 0.00 0.00 0.00 0.00 0.00 0.00 0.00 0.00 0.01 0.04 0.10 0.17 0.27 0.36 0.44 0.49 0.53 0.55 0.54 0.56 0.60 0.71 0.88 1.01 1.06 1.16 1.29 1.38 1.37 1.37 1.25 1.25 1.27 1.16 1.07 1.01 0.98 0.98 1.01 1.05 1.08 1.11 1.09 1.03 1.12 1.23 1.18 1.03
0.00 0.00 0.00 0.00 0.00 0.00 0.00 0.00 0.00 0.01 0.03 0.09 0.19 0.30 0.42 0.49 0.47 0.45 0.49 0.50 0.51 0.58 0.70 0.80 0.89 0.94 0.98 1.01 1.06 1.09 1.08 1.09 1.11 1.05 0.97 0.90 0.86 0.86 0.86 0.83 0.82 0.78 0.79 0.87 0.91 0.97 1.03 1.07 1.03
0.00 0.00 0.00 0.00 0.00 0.00 0.01 0.01 0.01 0.02 0.03 0.08 0.23 0.37 0.51 0.58 0.58 0.57 0.57 0.57 0.57 0.66 0.76 0.81 0.82 0.81 0.79 0.77 0.80 0.84 0.87 0.90 0.90 0.88 0.88 0.84 0.81 0.74 0.71 0.73 0.72 0.70 0.73 0.81 0.85 0.88 0.85 0.90 0.94
0.00 0.01 0.06 0.04 0.01 0.01 0.02 0.03 0.04 0.06 0.04 0.09 0.27 0.48 0.61 0.61 0.56 0.53 0.54 0.55 0.58 0.58 0.58 0.61 0.59 0.55 0.51 0.49 0.51 0.54 0.57 0.61 0.66 0.69 0.68 0.64 0.58 0.55 0.55 0.55 0.62 0.65 0.72 0.73 0.72 0.78 0.83 0.89 0.92
0.02 0.05 0.20 0.18 0.05 0.02 0.02 0.02 0.09 0.11 0.14 0.26 0.41 0.51 0.53 0.49 0.46 0.45 0.41 0.40 0.41 0.41 0.40 0.43 0.45 0.47 0.47 0.43 0.41 0.36 0.33 0.34 0.36 0.40 0.46 0.45 0.43 0.42 0.44 0.51 0.60 0.67 0.70 0.71 0.73 0.72 0.76 0.85 0.90
0.05 0.09 0.11 0.24 0.18 0.12 0.02 0.03 0.10 0.16 0.31 0.53 0.69 0.69 0.61 0.49 0.41 0.37 0.33 0.29 0.27 0.29 0.32 0.38 0.41 0.44 0.48 0.47 0.40 0.34 0.28 0.25 0.26 0.30 0.37 0.39 0.41 0.38 0.40 0.46 0.56 0.69 0.79 0.83 0.82 0.81 0.85 0.97 1.04
0.04 0.06 0.08 0.20 0.22 0.19 0.06 0.04 0.14 0.36 0.50 0.62 0.73 0.66 0.51 0.40 0.31 0.27 0.23 0.22 0.21 0.23 0.27 0.34 0.38 0.37 0.38 0.39 0.37 0.30 0.25 0.24 0.25 0.26 0.29 0.30 0.32 0.34 0.39 0.47 0.54 0.60 0.66 0.71 0.71 0.79 0.89 0.98 1.00
0.06 0.10 0.16 0.25 0.23 0.26 0.22 0.18 0.23 0.37 0.52 0.61 0.62 0.51 0.36 0.27 0.20 0.19 0.19 0.20 0.20 0.20 0.24 0.31 0.37 0.40 0.41 0.40 0.39 0.32 0.26 0.23 0.22 0.21 0.22 0.26 0.29 0.33 0.38 0.43 0.43 0.44 0.46 0.48 0.52 0.63 0.76 0.81 0.78
0.04 0.08 0.17 0.27 0.24 0.25 0.26 0.20 0.14 0.17 0.25 0.32 0.34 0.31 0.26 0.21 0.18 0.21 0.23 0.23 0.21 0.22 0.27 0.33 0.38 0.43 0.47 0.49 0.50 0.45 0.39 0.34 0.30 0.26 0.23 0.22 0.24 0.28 0.31 0.33 0.33 0.33 0.37 0.43 0.49 0.58 0.65 0.69 0.66